<- Previous Day | Today | Next Day ->

All Data for 18 October 2020

 

Time A - D Temp A - D Dew Point A - D Humidity A - D Pressure A - D Wind A - D Wind Dir Gust A - D Rain Rate A - D Rain Total
00:00 9.1 5.8 80 1020.7 1.6 S 2.2 0.0 0.0
00:01 9.1 5.8 80 1020.8 2.2 S 2.2 0.0 0.0
00:02 9.2 5.9 80 1020.8 3.1 SE 3.1 0.0 0.0
00:03 9.2 5.9 80 1020.9 3.1 SE 3.1 0.0 0.0
00:04 9.2 5.9 80 1020.6 3.1 S 3.1 0.0 0.0
00:05 9.2 5.9 80 1020.7 3.1 S 3.1 0.0 0.0
00:06 9.3 6.0 80 1020.5 2.2 S 3.1 0.0 0.0
00:08 9.3 6.0 80 1020.6 2.2 S 3.1 0.0 0.0
00:09 9.3 6.0 80 1020.5 2.2 S 3.1 0.0 0.0
00:10 9.4 6.1 80 1020.6 3.1 S 3.1 0.0 0.0
00:11 9.4 6.1 80 1020.5 3.1 S 3.1 0.0 0.0
00:12 9.4 6.1 80 1020.5 3.1 S 3.1 0.0 0.0
00:13 9.4 6.1 80 1020.5 2.2 S 3.1 0.0 0.0
00:14 9.4 6.1 80 1020.6 3.1 SE 3.1 0.0 0.0
00:15 9.4 6.1 80 1020.5 2.2 SE 3.1 0.0 0.0
00:16 9.4 6.1 80 1020.4 2.2 SE 3.1 0.0 0.0
00:17 9.4 6.1 80 1020.5 2.2 SE 3.1 0.0 0.0
00:18 9.4 6.1 80 1020.5 2.2 SE 3.1 0.0 0.0
00:19 9.4 6.1 80 1020.5 2.2 SE 3.1 0.0 0.0
00:20 9.3 6.0 80 1020.7 1.6 E 3.1 0.0 0.0
00:22 9.3 6.0 80 1020.5 1.6 SE 3.1 0.0 0.0
00:23 9.3 5.8 79 1020.8 1.6 NE 3.1 0.0 0.0
00:24 9.3 5.8 79 1020.7 0.7 SE 2.2 0.0 0.0
00:25 9.3 5.8 79 1020.7 0.7 SE 2.2 0.0 0.0
00:26 9.2 5.8 79 1020.8 1.6 N 2.2 0.0 0.0
00:27 9.2 5.8 79 1020.5 0.7 NE 2.2 0.0 0.0
00:28 9.2 5.8 79 1020.7 0.7 NE 2.2 0.0 0.0
00:29 9.2 5.8 79 1020.7 0.7 NE 2.2 0.0 0.0
00:30 9.1 5.7 79 1020.8 1.6 NE 2.2 0.0 0.0
00:31 9.1 5.7 79 1020.6 1.6 NE 1.6 0.0 0.0
00:32 9.1 5.7 79 1020.7 1.6 N 1.6 0.0 0.0
00:33 9.1 5.7 79 1020.5 0.7 NE 1.6 0.0 0.0
00:34 9.1 5.7 79 1020.6 0.7 N 1.6 0.0 0.0
00:36 9.0 5.4 78 1020.4 1.6 N 1.6 0.0 0.0
00:37 9.0 5.4 78 1020.7 1.6 N 1.6 0.0 0.0
00:38 9.0 5.4 78 1020.5 1.6 N 1.6 0.0 0.0
00:39 8.9 5.3 78 1020.4 0.7 N 1.6 0.0 0.0
00:40 8.9 5.3 78 1020.4 0.7 N 1.6 0.0 0.0
00:41 8.9 5.3 78 1020.5 0.7 N 1.6 0.0 0.0
00:42 8.9 5.3 78 1020.8 1.6 NE 1.6 0.0 0.0
00:43 8.9 5.3 78 1020.4 0.7 N 1.6 0.0 0.0
00:44 8.9 5.3 78 1020.5 1.6 E 1.6 0.0 0.0
00:45 8.8 5.2 78 1020.4 1.6 NE 1.6 0.0 0.0
00:46 8.8 5.2 78 1020.6 0.7 NE 1.6 0.0 0.0
00:47 8.8 5.2 78 1020.5 1.6 NE 1.6 0.0 0.0
00:48 8.8 5.2 78 1020.6 0.7 NE 1.6 0.0 0.0
00:50 8.8 5.2 78 1020.4 0.7 N 1.6 0.0 0.0
00:51 8.7 5.1 78 1020.7 1.6 N 1.6 0.0 0.0
00:52 8.7 5.1 78 1020.5 0.7 N 1.6 0.0 0.0
00:53 8.7 5.1 78 1020.6 0.7 NE 1.6 0.0 0.0
00:54 8.7 5.1 78 1020.4 0.7 NE 1.6 0.0 0.0
00:55 8.7 5.1 78 1020.4 0.7 N 1.6 0.0 0.0
00:56 8.7 5.1 78 1020.6 0.7 NW 1.6 0.0 0.0
00:57 8.7 5.1 78 1020.4 0.0 N 1.6 0.0 0.0
00:58 8.6 5.0 78 1020.5 0.7 NE 1.6 0.0 0.0
00:59 8.6 5.0 78 1020.6 0.7 NE 1.6 0.0 0.0
01:00 8.6 5.0 78 1020.6 0.7 NE 1.6 0.0 0.0
01:01 8.6 5.0 78 1020.6 0.7 NE 1.6 0.0 0.0
01:02 8.6 5.0 78 1020.5 0.7 NE 0.7 0.0 0.0
01:04 8.6 5.0 78 1020.7 0.7 NE 0.7 0.0 0.0
01:05 8.5 4.9 78 1020.8 3.1 S 3.1 0.0 0.0
01:06 8.5 4.9 78 1020.5 3.1 S 3.1 0.0 0.0
01:07 8.5 4.7 77 1020.8 1.6 S 3.1 0.0 0.0
01:08 8.5 4.7 77 1020.8 1.6 S 3.1 0.0 0.0
01:09 8.5 4.7 77 1020.7 1.6 S 3.1 0.0 0.0
01:10 8.5 4.7 77 1020.7 1.6 S 3.1 0.0 0.0
01:11 8.4 4.6 77 1020.6 0.7 N 3.1 0.0 0.0
01:12 8.4 4.6 77 1020.5 0.7 NE 3.1 0.0 0.0
01:13 8.4 4.6 77 1020.6 0.7 NE 3.1 0.0 0.0
01:14 8.3 4.5 77 1020.8 0.0 E 3.1 0.0 0.0
01:15 8.3 4.5 77 1020.7 0.7 S 3.1 0.0 0.0
01:16 8.3 4.5 77 1020.8 0.7 S 1.6 0.0 0.0
01:18 8.3 4.5 77 1020.5 0.7 E 1.6 0.0 0.0
01:19 8.2 4.4 77 1020.6 0.7 NW 1.6 0.0 0.0
01:20 8.2 4.4 77 1020.8 0.7 E 0.7 0.0 0.0
01:21 8.2 4.4 77 1020.6 0.7 S 0.7 0.0 0.0
01:22 8.2 4.4 77 1020.7 0.7 S 0.7 0.0 0.0
01:23 8.2 4.4 77 1020.6 0.7 S 0.7 0.0 0.0
01:24 8.2 4.4 77 1020.7 0.7 S 0.7 0.0 0.0
01:25 8.2 4.4 77 1020.7 0.7 S 0.7 0.0 0.0
01:26 8.2 4.4 77 1020.7 0.7 ENE 0.7 0.0 0.0
01:27 8.2 4.4 77 1020.7 0.7 ENE 0.7 0.0 0.0
01:28 8.2 4.4 77 1020.6 0.7 ENE 0.7 0.0 0.0
01:29 8.1 4.3 77 1020.7 0.7 N 0.7 0.0 0.0
01:30 8.1 4.3 77 1020.7 0.7 N 0.7 0.0 0.0
01:32 8.1 4.3 77 1020.6 0.7 S 0.7 0.0 0.0
01:33 8.1 4.3 77 1020.5 0.7 SE 0.7 0.0 0.0
01:34 8.1 4.3 77 1020.5 0.7 ENE 0.7 0.0 0.0
01:35 8.1 4.3 77 1020.5 1.6 S 1.6 0.0 0.0
01:36 8.1 4.3 77 1020.5 1.6 S 1.6 0.0 0.0
01:37 8.1 4.3 77 1020.5 1.6 S 1.6 0.0 0.0
01:38 8.1 4.3 77 1020.6 2.2 S 2.2 0.0 0.0
01:39 8.1 4.5 78 1020.5 2.2 S 2.2 0.0 0.0
01:41 8.1 4.5 78 1020.7 3.1 SE 3.1 0.0 0.0
01:42 8.1 4.5 78 1020.7 1.6 SE 3.1 0.0 0.0
01:43 8.1 4.5 78 1020.4 1.6 S 3.1 0.0 0.0
01:44 8.1 4.5 78 1020.6 1.6 S 3.1 0.0 0.0
01:45 8.1 4.5 78 1020.7 1.6 W 3.1 0.0 0.0
01:46 8.1 4.5 78 1020.6 1.6 SE 3.1 0.0 0.0
01:47 8.1 4.5 78 1020.4 1.6 S 3.1 0.0 0.0
01:49 8.1 4.5 78 1020.5 1.6 SE 3.1 0.0 0.0
01:50 8.1 4.5 78 1020.5 1.6 S 3.1 0.0 0.0
01:51 8.1 4.5 78 1020.6 0.0 S 2.2 0.0 0.0
01:52 8.1 4.5 78 1020.6 1.6 S 2.2 0.0 0.0
01:53 8.1 4.5 78 1020.6 1.6 S 2.2 0.0 0.0
01:54 8.1 4.5 78 1020.4 1.6 S 2.2 0.0 0.0
01:55 8.1 4.5 78 1020.5 1.6 S 2.2 0.0 0.0
01:56 8.1 4.5 78 1020.7 2.2 S 2.2 0.0 0.0
01:57 8.0 4.4 78 1020.5 1.6 SE 2.2 0.0 0.0
01:58 8.0 4.4 78 1020.7 2.2 S 2.2 0.0 0.0
01:59 8.0 4.4 78 1020.5 2.2 S 2.2 0.0 0.0
02:00 8.0 4.4 78 1020.7 1.6 S 2.2 0.0 0.0
02:01 8.0 4.4 78 1020.5 1.6 S 2.2 0.0 0.0
02:03 8.0 4.4 78 1020.5 1.6 S 2.2 0.0 0.0
02:04 8.0 4.4 78 1020.6 1.6 S 2.2 0.0 0.0
02:05 8.0 4.4 78 1020.7 1.6 S 2.2 0.0 0.0
02:06 8.0 4.4 78 1020.8 1.6 S 2.2 0.0 0.0
02:07 7.9 4.3 78 1020.8 0.7 NE 2.2 0.0 0.0
02:08 7.9 4.3 78 1020.9 0.7 NE 2.2 0.0 0.0
02:09 7.9 4.3 78 1020.8 0.0 NE 2.2 0.0 0.0
02:10 7.9 4.3 78 1020.8 0.7 NE 1.6 0.0 0.0
02:11 7.9 4.3 78 1020.7 0.7 NE 1.6 0.0 0.0
02:12 7.9 4.3 78 1020.8 0.0 NE 1.6 0.0 0.0
02:13 7.9 4.3 78 1020.7 0.0 NE 1.6 0.0 0.0
02:14 7.9 4.3 78 1020.8 0.0 NE 1.6 0.0 0.0
02:15 7.9 4.3 78 1020.8 0.0 NE 1.6 0.0 0.0
02:17 7.9 4.3 78 1020.6 0.0 NE 0.7 0.0 0.0
02:18 7.9 4.3 78 1020.8 0.0 NE 0.7 0.0 0.0
02:20 7.9 4.3 78 1020.8 0.0 N 0.7 0.0 0.0
02:21 7.9 4.3 78 1020.7 0.0 E 0.7 0.0 0.0
02:22 8.0 4.4 78 1020.7 0.0 NE 0.0 0.0 0.0
02:23 8.0 4.4 78 1020.7 0.0 NE 0.0 0.0 0.0
02:24 8.0 4.4 78 1020.7 0.0 NE 0.0 0.0 0.0
02:25 8.0 4.4 78 1020.8 0.0 NE 0.0 0.0 0.0
02:26 8.0 4.4 78 1020.8 0.0 NE 0.0 0.0 0.0
02:27 8.0 4.4 78 1020.8 0.0 NE 0.0 0.0 0.0
02:28 8.0 4.4 78 1020.8 0.0 NE 0.0 0.0 0.0
02:29 8.0 4.6 79 1020.5 0.0 NE 0.0 0.0 0.0
02:30 8.0 4.6 79 1020.7 0.0 NE 0.0 0.0 0.0
02:31 8.1 4.7 79 1020.8 0.0 N 0.0 0.0 0.0
02:32 8.1 4.7 79 1020.8 0.0 N 0.0 0.0 0.0
02:33 8.1 4.7 79 1020.7 0.0 NE 0.0 0.0 0.0
02:34 8.1 4.7 79 1020.7 0.0 E 0.0 0.0 0.0
02:36 8.1 4.7 79 1020.8 0.7 NE 0.7 0.0 0.0
02:37 8.1 4.7 79 1020.8 0.0 SE 0.7 0.0 0.0
02:38 8.1 4.7 79 1021.0 0.0 E 0.7 0.0 0.0
02:39 8.1 4.7 79 1020.8 0.7 NE 0.7 0.0 0.0
02:40 8.1 4.7 79 1021.0 0.7 NE 0.7 0.0 0.0
02:41 8.1 4.7 79 1021.0 0.7 NE 0.7 0.0 0.0
02:42 8.1 4.7 79 1020.8 0.7 E 0.7 0.0 0.0
02:43 8.1 4.7 79 1021.0 0.7 E 0.7 0.0 0.0
02:44 8.1 4.7 79 1020.8 0.0 NE 0.7 0.0 0.0
02:45 8.1 4.7 79 1021.0 0.0 NE 0.7 0.0 0.0
02:46 8.1 4.7 79 1021.1 0.7 NE 0.7 0.0 0.0
02:47 8.1 4.7 79 1020.9 0.7 NE 0.7 0.0 0.0
02:48 8.1 4.7 79 1020.9 1.6 NE 1.6 0.0 0.0
02:50 8.1 4.7 79 1020.9 1.6 NE 1.6 0.0 0.0
02:51 8.1 4.9 80 1020.8 0.7 NNE 1.6 0.0 0.0
02:52 8.2 5.0 80 1021.0 1.6 E 1.6 0.0 0.0
02:53 8.2 5.0 80 1020.7 1.6 NE 1.6 0.0 0.0
02:54 8.2 5.0 80 1020.8 1.6 NE 1.6 0.0 0.0
02:55 8.2 5.0 80 1021.0 1.6 NE 1.6 0.0 0.0
02:56 8.2 5.0 80 1020.9 0.7 NE 1.6 0.0 0.0
02:57 8.2 5.0 80 1020.9 0.7 NE 1.6 0.0 0.0
02:58 8.2 5.0 80 1020.9 0.7 E 1.6 0.0 0.0
02:59 8.2 5.0 80 1020.9 0.7 SW 1.6 0.0 0.0
03:00 8.2 5.0 80 1021.1 0.7 SW 1.6 0.0 0.0
03:01 8.2 5.0 80 1020.7 0.7 SW 1.6 0.0 0.0
03:02 8.2 5.0 80 1020.9 0.7 SW 1.6 0.0 0.0
03:04 8.2 5.0 80 1020.7 0.7 SW 1.6 0.0 0.0
03:05 8.2 5.0 80 1020.8 0.7 SW 0.7 0.0 0.0
03:06 8.2 5.0 80 1020.8 0.7 SW 0.7 0.0 0.0
03:07 8.2 5.0 80 1021.0 1.6 E 1.6 0.0 0.0
03:08 8.2 5.0 80 1021.1 0.7 NE 1.6 0.0 0.0
03:09 8.2 5.0 80 1021.1 0.7 NE 1.6 0.0 0.0
03:10 8.2 5.0 80 1021.0 0.7 NE 1.6 0.0 0.0
03:11 8.2 5.0 80 1021.0 1.6 NE 1.6 0.0 0.0
03:12 8.2 5.0 80 1020.9 0.7 NE 1.6 0.0 0.0
03:13 8.2 5.0 80 1020.8 0.7 NE 1.6 0.0 0.0
03:14 8.2 5.0 80 1021.0 1.6 NE 1.6 0.0 0.0
03:15 8.2 5.0 80 1020.7 0.7 ESE 1.6 0.0 0.0
03:16 8.2 5.0 80 1020.8 0.7 E 1.6 0.0 0.0
03:18 8.1 4.9 80 1020.9 0.7 NE 1.6 0.0 0.0
03:19 8.1 4.9 80 1020.8 1.6 NE 1.6 0.0 0.0
03:20 8.1 4.9 80 1020.8 0.7 E 1.6 0.0 0.0
03:21 8.1 4.9 80 1020.8 0.7 NE 1.6 0.0 0.0
03:22 8.1 4.9 80 1020.8 0.7 E 1.6 0.0 0.0
03:23 8.1 4.9 80 1020.6 0.7 NE 1.6 0.0 0.0
03:24 8.1 4.9 80 1020.7 0.7 E 1.6 0.0 0.0
03:25 8.1 4.9 80 1020.9 0.7 ENE 1.6 0.0 0.0
03:26 8.1 4.9 80 1020.7 1.6 NE 1.6 0.0 0.0
03:27 8.1 4.9 80 1020.6 1.6 E 1.6 0.0 0.0
03:28 8.1 4.9 80 1020.9 1.6 NE 1.6 0.0 0.0
03:29 8.1 4.9 80 1020.8 0.7 NE 1.6 0.0 0.0
03:30 8.1 4.9 80 1020.9 1.6 ENE 1.6 0.0 0.0
03:32 8.2 5.0 80 1020.9 0.7 NE 1.6 0.0 0.0
03:33 8.2 5.0 80 1020.9 0.7 NE 1.6 0.0 0.0
03:34 8.2 5.0 80 1020.9 1.6 NE 1.6 0.0 0.0
03:35 8.2 5.0 80 1020.7 1.6 NE 1.6 0.0 0.0
03:36 8.2 5.0 80 1020.8 0.7 NE 1.6 0.0 0.0
03:37 8.2 5.0 80 1020.8 0.7 NE 1.6 0.0 0.0
03:38 8.2 5.0 80 1020.7 0.7 NE 1.6 0.0 0.0
03:39 8.3 5.1 80 1020.7 0.7 NE 1.6 0.0 0.0
03:40 8.3 5.1 80 1020.9 0.7 N 1.6 0.0 0.0
03:41 8.3 5.1 80 1020.9 0.7 NE 1.6 0.0 0.0
03:42 8.3 5.1 80 1020.7 0.7 NE 1.6 0.0 0.0
03:43 8.3 5.1 80 1020.7 0.7 NE 1.6 0.0 0.0
03:44 8.3 5.1 80 1020.6 1.6 NE 1.6 0.0 0.0
03:46 8.3 5.1 80 1020.8 0.7 NNW 1.6 0.0 0.0
03:47 8.3 5.1 80 1020.9 1.6 N 1.6 0.0 0.0
03:48 8.3 5.1 80 1020.7 0.7 NNW 1.6 0.0 0.0
03:49 8.3 5.1 80 1020.8 0.7 NNW 1.6 0.0 0.0
03:50 8.3 5.1 80 1020.7 0.7 NE 1.6 0.0 0.0
03:51 8.3 5.1 80 1020.5 0.7 NE 1.6 0.0 0.0
03:52 8.3 5.1 80 1020.8 0.7 N 1.6 0.0 0.0
03:53 8.3 5.1 80 1020.7 0.7 NE 1.6 0.0 0.0
03:54 8.3 5.1 80 1020.6 0.7 NNW 1.6 0.0 0.0
03:55 8.3 5.1 80 1020.7 0.7 NE 1.6 0.0 0.0
03:56 8.3 5.1 80 1020.9 1.6 E 1.6 0.0 0.0
03:57 8.3 5.1 80 1020.7 1.6 NE 1.6 0.0 0.0
03:58 8.3 5.1 80 1020.7 0.7 NE 1.6 0.0 0.0
04:00 8.3 5.1 80 1020.5 1.6 NE 1.6 0.0 0.0
04:01 8.3 5.1 80 1020.4 1.6 NE 1.6 0.0 0.0
04:02 8.3 5.1 80 1020.6 1.6 NE 1.6 0.0 0.0
04:03 8.3 5.1 80 1020.8 1.6 NE 1.6 0.0 0.0
04:04 8.3 5.1 80 1020.6 1.6 NNW 1.6 0.0 0.0
04:05 8.3 5.1 80 1020.6 1.6 NNW 1.6 0.0 0.0
04:06 8.3 5.1 80 1020.6 1.6 NNW 1.6 0.0 0.0
04:07 8.3 5.1 80 1020.7 0.7 NE 1.6 0.0 0.0
04:08 8.3 5.1 80 1020.7 0.7 N 1.6 0.0 0.0
04:09 8.3 5.1 80 1020.6 0.7 N 1.6 0.0 0.0
04:10 8.4 5.2 80 1020.5 1.6 N 1.6 0.0 0.0
04:11 8.4 5.2 80 1020.6 1.6 NE 1.6 0.0 0.0
04:12 8.4 5.2 80 1020.6 1.6 NE 1.6 0.0 0.0
04:14 8.4 5.2 80 1020.6 1.6 NE 1.6 0.0 0.0
04:15 8.4 5.2 80 1020.5 0.7 NNE 1.6 0.0 0.0
04:16 8.4 5.2 80 1020.7 1.6 NE 1.6 0.0 0.0
04:17 8.4 5.2 80 1020.6 0.7 E 1.6 0.0 0.0
04:18 8.4 5.2 80 1020.9 1.6 NE 1.6 0.0 0.0
04:19 8.4 5.2 80 1020.6 1.6 NE 1.6 0.0 0.0
04:20 8.4 5.2 80 1020.3 0.7 NNW 1.6 0.0 0.0
04:21 8.4 5.2 80 1020.7 1.6 NE 1.6 0.0 0.0
04:22 8.4 5.2 80 1020.6 0.7 NNW 1.6 0.0 0.0
04:23 8.4 5.2 80 1020.7 0.7 NE 1.6 0.0 0.0
04:24 8.4 5.2 80 1020.7 1.6 NE 1.6 0.0 0.0
04:25 8.4 5.2 80 1020.6 1.6 NE 1.6 0.0 0.0
04:26 8.4 5.2 80 1020.6 1.6 NE 1.6 0.0 0.0
04:27 8.4 5.2 80 1020.6 0.7 NE 1.6 0.0 0.0
04:29 8.4 5.2 80 1020.5 0.7 NNW 1.6 0.0 0.0
04:30 8.4 5.2 80 1020.4 0.7 NE 1.6 0.0 0.0
04:31 8.3 5.1 80 1020.4 0.7 E 1.6 0.0 0.0
04:32 8.3 5.1 80 1020.4 0.7 SE 1.6 0.0 0.0
04:33 8.3 5.1 80 1020.4 0.7 SE 1.6 0.0 0.0
04:34 8.3 5.1 80 1020.4 0.7 N 1.6 0.0 0.0
04:35 8.3 5.1 80 1020.5 0.7 SE 1.6 0.0 0.0
04:36 8.3 4.9 79 1020.5 0.7 NE 1.6 0.0 0.0
04:37 8.3 4.9 79 1020.6 0.7 NNW 1.6 0.0 0.0
04:38 8.2 4.8 79 1020.6 0.7 N 1.6 0.0 0.0
04:39 8.2 4.8 79 1020.5 0.7 E 1.6 0.0 0.0
04:40 8.2 4.8 79 1020.5 0.7 N 1.6 0.0 0.0
04:42 8.2 4.8 79 1020.7 1.6 NE 1.6 0.0 0.0
04:43 8.2 4.8 79 1020.7 1.6 E 1.6 0.0 0.0
04:44 8.2 4.8 79 1020.4 0.7 N 1.6 0.0 0.0
04:45 8.1 4.7 79 1020.6 0.7 NE 1.6 0.0 0.0
04:46 8.1 4.7 79 1020.5 0.7 NE 1.6 0.0 0.0
04:47 8.1 4.7 79 1020.6 0.7 W 1.6 0.0 0.0
04:48 8.1 4.7 79 1020.7 0.7 W 1.6 0.0 0.0
04:49 8.1 4.7 79 1020.8 0.7 SW 1.6 0.0 0.0
04:50 8.1 4.7 79 1020.6 0.7 N 1.6 0.0 0.0
04:51 8.1 4.7 79 1020.9 1.6 S 1.6 0.0 0.0
04:52 8.1 4.7 79 1020.8 1.6 SE 1.6 0.0 0.0
04:53 8.1 4.7 79 1020.8 2.2 E 2.2 0.0 0.0
04:54 8.1 4.7 79 1020.6 3.8 SE 3.8 0.0 0.0
04:56 8.1 4.7 79 1020.7 3.1 S 3.8 0.0 0.0
04:57 8.0 4.6 79 1020.7 4.5 SE 4.5 0.0 0.0
04:58 8.0 4.6 79 1020.7 3.8 SE 4.5 0.0 0.0
04:59 8.0 4.6 79 1021.1 3.8 E 4.5 0.0 0.0
05:00 8.0 4.6 79 1020.9 3.8 E 4.5 0.0 0.0
05:01 8.0 4.6 79 1020.9 3.8 E 4.5 0.0 0.0
05:02 8.0 4.6 79 1020.8 3.8 E 4.5 0.0 0.0
05:03 8.0 4.6 79 1021.0 3.8 E 4.5 0.0 0.0
05:04 8.0 4.6 79 1020.9 3.8 E 4.5 0.0 0.0
05:05 8.0 4.6 79 1020.8 3.8 E 4.5 0.0 0.0
05:06 8.0 4.6 79 1020.8 3.8 E 4.5 0.0 0.0
05:07 8.0 4.6 79 1020.8 3.8 E 4.5 0.0 0.0
05:08 8.1 4.7 79 1020.6 3.1 W 3.8 0.0 0.0
05:09 8.1 4.7 79 1020.8 3.8 E 3.8 0.0 0.0
05:11 8.1 4.7 79 1020.9 3.1 SE 3.8 0.0 0.0
05:12 8.1 4.7 79 1021.1 3.1 S 3.8 0.0 0.0
05:13 8.1 4.7 79 1021.0 3.1 SE 3.8 0.0 0.0
05:14 8.1 4.7 79 1021.1 3.1 ESE 3.8 0.0 0.0
05:15 8.1 4.7 79 1020.8 3.1 SE 3.8 0.0 0.0
05:16 8.1 4.7 79 1021.2 3.1 S 3.8 0.0 0.0
05:17 8.1 4.7 79 1020.9 3.1 S 3.8 0.0 0.0
05:18 8.1 4.7 79 1020.9 3.8 S 3.8 0.0 0.0
05:19 8.1 4.7 79 1020.9 3.8 SE 3.8 0.0 0.0
05:20 8.1 4.7 79 1021.1 3.1 SE 3.8 0.0 0.0
05:21 8.1 4.7 79 1021.0 2.2 E 3.8 0.0 0.0
05:22 8.1 4.7 79 1021.1 2.2 SE 3.8 0.0 0.0
05:24 8.1 4.7 79 1021.1 2.2 S 3.8 0.0 0.0
05:25 8.1 4.7 79 1021.0 2.2 SE 3.8 0.0 0.0
05:26 8.1 4.7 79 1021.0 2.2 S 3.8 0.0 0.0
05:27 8.1 4.7 79 1021.0 2.2 NE 3.8 0.0 0.0
05:28 8.1 4.7 79 1021.1 3.1 E 3.8 0.0 0.0
05:29 8.1 4.7 79 1021.1 3.1 E 3.8 0.0 0.0
05:30 8.1 4.7 79 1020.9 1.6 N 3.1 0.0 0.0
05:31 8.1 4.7 79 1021.1 1.6 NNW 3.1 0.0 0.0
05:32 8.1 4.7 79 1021.0 1.6 NE 3.1 0.0 0.0
05:33 8.1 4.7 79 1020.9 1.6 NE 3.1 0.0 0.0
05:34 8.1 4.7 79 1020.8 0.7 NNW 3.1 0.0 0.0
05:35 8.1 4.7 79 1021.0 0.7 NE 3.1 0.0 0.0
05:36 8.0 4.6 79 1020.9 0.7 N 3.1 0.0 0.0
05:38 8.0 4.6 79 1021.0 0.7 NE 3.1 0.0 0.0
05:39 8.0 4.6 79 1021.0 0.7 NE 1.6 0.0 0.0
05:40 8.0 4.6 79 1020.9 1.6 N 1.6 0.0 0.0
05:41 8.0 4.6 79 1021.1 0.7 NE 1.6 0.0 0.0
05:42 8.0 4.6 79 1021.0 0.7 NE 1.6 0.0 0.0
05:43 8.0 4.6 79 1021.0 1.6 NE 1.6 0.0 0.0
05:44 8.0 4.6 79 1021.0 0.7 NE 1.6 0.0 0.0
05:45 8.0 4.4 78 1021.0 0.7 E 1.6 0.0 0.0
05:46 8.0 4.4 78 1021.1 0.7 NE 1.6 0.0 0.0
05:47 8.0 4.4 78 1021.0 0.7 NE 1.6 0.0 0.0
05:48 8.0 4.4 78 1021.1 0.7 NE 1.6 0.0 0.0
05:49 8.0 4.4 78 1021.2 0.7 NE 1.6 0.0 0.0
05:50 8.0 4.4 78 1021.0 1.6 NE 1.6 0.0 0.0
05:51 8.0 4.4 78 1021.2 0.7 NNW 1.6 0.0 0.0
05:53 7.9 4.3 78 1021.0 1.6 NW 1.6 0.0 0.0
05:54 7.9 4.3 78 1021.1 1.6 NE 1.6 0.0 0.0
05:55 7.9 4.3 78 1021.1 0.7 NE 1.6 0.0 0.0
05:56 7.9 4.3 78 1021.3 1.6 NE 1.6 0.0 0.0
05:57 7.9 4.3 78 1021.3 1.6 NE 1.6 0.0 0.0
05:58 7.9 4.3 78 1021.3 2.2 NE 2.2 0.0 0.0
05:59 8.0 4.4 78 1021.2 1.6 NE 2.2 0.0 0.0
06:00 8.0 4.4 78 1021.1 1.6 NE 2.2 0.0 0.0
06:01 8.0 4.4 78 1021.1 1.6 NE 2.2 0.0 0.0
06:02 8.0 4.4 78 1021.0 1.6 NE 2.2 0.0 0.0
06:03 8.0 4.4 78 1021.1 0.7 NE 2.2 0.0 0.0
06:04 8.0 4.4 78 1021.2 0.7 E 2.2 0.0 0.0
06:06 8.0 4.4 78 1021.0 0.7 NE 2.2 0.0 0.0
06:07 8.0 4.6 79 1021.0 0.0 NNW 2.2 0.0 0.0
06:08 8.0 4.6 79 1021.1 0.7 NE 1.6 0.0 0.0
06:09 8.0 4.6 79 1021.3 0.7 E 1.6 0.0 0.0
06:10 8.0 4.6 79 1021.3 0.7 E 1.6 0.0 0.0
06:11 8.0 4.6 79 1021.1 0.7 SE 1.6 0.0 0.0
06:12 8.0 4.6 79 1021.1 0.7 N 1.6 0.0 0.0
06:13 8.0 4.4 78 1021.2 0.7 SE 0.7 0.0 0.0
06:14 8.0 4.4 78 1021.3 0.7 N 0.7 0.0 0.0
06:15 8.0 4.4 78 1021.0 0.7 NE 0.7 0.0 0.0
06:16 8.0 4.4 78 1021.2 0.7 NE 0.7 0.0 0.0
06:17 8.0 4.4 78 1021.4 0.7 N 0.7 0.0 0.0
06:18 8.0 4.4 78 1021.3 0.7 NNW 0.7 0.0 0.0
06:19 8.0 4.4 78 1021.4 1.6 E 1.6 0.0 0.0
06:21 7.9 4.3 78 1021.4 2.2 NE 2.2 0.0 0.0
06:22 7.9 4.3 78 1021.4 1.6 SE 2.2 0.0 0.0
06:23 7.9 4.3 78 1021.5 1.6 E 2.2 0.0 0.0
06:24 7.9 4.3 78 1021.4 1.6 NE 2.2 0.0 0.0
06:25 7.9 4.3 78 1021.4 1.6 NE 2.2 0.0 0.0
06:26 7.8 4.2 78 1021.5 1.6 NE 2.2 0.0 0.0
06:27 7.8 4.2 78 1021.5 2.2 S 2.2 0.0 0.0
06:28 7.8 4.2 78 1021.4 2.2 S 2.2 0.0 0.0
06:29 7.8 4.2 78 1021.6 1.6 SE 2.2 0.0 0.0
06:30 7.8 4.2 78 1021.4 1.6 E 2.2 0.0 0.0
06:31 7.8 4.2 78 1021.5 0.7 NE 2.2 0.0 0.0
06:32 7.8 4.2 78 1021.3 0.7 NE 2.2 0.0 0.0
06:34 7.7 4.1 78 1021.6 0.7 NE 2.2 0.0 0.0
06:35 7.7 4.1 78 1021.6 1.6 E 2.2 0.0 0.0
06:36 7.7 4.1 78 1021.6 0.7 NE 2.2 0.0 0.0
06:37 7.7 4.1 78 1021.7 0.7 E 2.2 0.0 0.0
06:38 7.7 4.1 78 1021.8 1.6 NE 1.6 0.0 0.0
06:39 7.7 4.1 78 1021.7 1.6 NE 1.6 0.0 0.0
06:40 7.7 4.1 78 1021.7 1.6 ESE 1.6 0.0 0.0
06:41 7.7 4.1 78 1021.6 1.6 S 1.6 0.0 0.0
06:42 7.7 4.1 78 1021.5 0.7 NE 1.6 0.0 0.0
06:43 7.7 4.1 78 1021.7 1.6 NE 1.6 0.0 0.0
06:44 7.7 4.1 78 1021.5 1.6 NE 1.6 0.0 0.0
06:45 7.7 4.1 78 1021.5 0.7 WSW 1.6 0.0 0.0
06:46 7.7 4.1 78 1021.6 1.6 NE 1.6 0.0 0.0
06:47 7.7 4.1 78 1021.7 1.6 E 1.6 0.0 0.0
06:49 7.7 4.1 78 1021.5 1.6 S 1.6 0.0 0.0
06:50 7.7 4.1 78 1021.8 1.6 SE 1.6 0.0 0.0
06:51 7.7 4.1 78 1021.7 1.6 WNW 1.6 0.0 0.0
06:52 7.7 4.1 78 1021.8 1.6 WNW 1.6 0.0 0.0
06:53 7.7 4.1 78 1021.8 1.6 WNW 1.6 0.0 0.0
06:54 7.7 4.1 78 1021.5 1.6 E 1.6 0.0 0.0
06:55 7.7 4.1 78 1021.5 0.7 ENE 1.6 0.0 0.0
06:56 7.7 4.1 78 1021.5 1.6 S 1.6 0.0 0.0
06:57 7.7 4.1 78 1021.9 1.6 S 1.6 0.0 0.0
06:58 7.7 4.1 78 1021.7 1.6 E 1.6 0.0 0.0
06:59 7.7 4.1 78 1021.6 1.6 NNE 1.6 0.0 0.0
07:00 7.7 4.1 78 1021.8 1.6 E 1.6 0.0 0.0
07:02 7.7 4.1 78 1021.8 1.6 E 1.6 0.0 0.0
07:03 7.7 4.1 78 1021.7 1.6 E 1.6 0.0 0.0
07:04 7.7 4.1 78 1021.7 1.6 E 1.6 0.0 0.0
07:05 7.7 4.1 78 1021.7 1.6 E 1.6 0.0 0.0
07:06 7.7 4.1 78 1021.6 1.6 E 1.6 0.0 0.0
07:07 7.7 4.1 78 1021.6 1.6 E 1.6 0.0 0.0
07:08 7.7 4.1 78 1021.7 1.6 E 1.6 0.0 0.0
07:09 7.8 4.2 78 1021.6 0.7 N 1.6 0.0 0.0
07:10 7.8 4.2 78 1021.6 0.7 N 1.6 0.0 0.0
07:11 7.8 4.2 78 1021.6 0.7 NE 1.6 0.0 0.0
07:12 7.8 4.2 78 1021.6 1.6 NNE 1.6 0.0 0.0
07:13 7.8 4.2 78 1021.6 0.7 NE 1.6 0.0 0.0
07:14 7.8 4.2 78 1021.7 0.7 NE 1.6 0.0 0.0
07:15 7.8 4.2 78 1022.0 1.6 NE 1.6 0.0 0.0
07:17 7.8 4.2 78 1021.6 0.0 NE 1.6 0.0 0.0
07:18 7.8 4.2 78 1021.6 0.7 NE 1.6 0.0 0.0
07:19 7.8 4.2 78 1021.6 1.6 NE 1.6 0.0 0.0
07:20 7.8 4.2 78 1021.6 1.6 NE 1.6 0.0 0.0
07:21 7.8 4.2 78 1021.6 1.6 NE 1.6 0.0 0.0
07:22 7.8 4.2 78 1021.7 1.6 NE 1.6 0.0 0.0
07:23 7.8 4.2 78 1021.5 1.6 E 1.6 0.0 0.0
07:24 7.8 4.4 79 1021.4 1.6 E 1.6 0.0 0.0
07:25 7.8 4.4 79 1021.5 1.6 NE 1.6 0.0 0.0
07:26 7.9 4.5 79 1021.5 0.7 NE 1.6 0.0 0.0
07:27 7.9 4.5 79 1021.4 0.7 NE 1.6 0.0 0.0
07:28 7.9 4.5 79 1021.5 1.6 SE 1.6 0.0 0.0
07:29 7.9 4.5 79 1021.6 1.6 NE 1.6 0.0 0.0
07:31 8.0 4.6 79 1021.4 1.6 NE 1.6 0.0 0.0
07:32 8.0 4.6 79 1021.5 1.6 NE 1.6 0.0 0.0
07:33 8.0 4.6 79 1021.7 0.7 E 1.6 0.0 0.0
07:34 8.0 4.6 79 1021.4 0.7 E 1.6 0.0 0.0
07:35 8.0 4.6 79 1021.6 1.6 NE 1.6 0.0 0.0
07:36 8.0 4.6 79 1021.5 1.6 E 1.6 0.0 0.0
07:37 8.0 4.6 79 1021.7 1.6 NE 1.6 0.0 0.0
07:38 8.0 4.6 79 1021.4 0.7 NE 1.6 0.0 0.0
07:39 8.0 4.6 79 1021.4 1.6 NE 1.6 0.0 0.0
07:40 8.0 4.6 79 1021.3 0.7 NE 1.6 0.0 0.0
07:41 8.0 4.6 79 1021.4 0.7 NE 1.6 0.0 0.0
07:42 8.1 4.7 79 1021.4 1.6 SW 1.6 0.0 0.0
07:44 8.1 4.7 79 1021.4 1.6 NE 1.6 0.0 0.0
07:45 8.1 4.7 79 1021.4 1.6 NE 1.6 0.0 0.0
07:46 8.1 4.7 79 1021.5 1.6 NE 1.6 0.0 0.0
07:47 8.1 4.7 79 1021.7 1.6 NE 1.6 0.0 0.0
07:48 8.2 4.8 79 1021.4 0.7 NNW 1.6 0.0 0.0
07:49 8.2 4.8 79 1021.4 0.7 NNW 1.6 0.0 0.0
07:50 8.2 4.8 79 1021.5 0.7 NNW 1.6 0.0 0.0
07:51 8.2 4.8 79 1021.5 0.7 NE 1.6 0.0 0.0
07:52 8.2 4.8 79 1021.3 0.7 N 1.6 0.0 0.0
07:53 8.2 4.8 79 1021.4 0.7 NE 1.6 0.0 0.0
07:54 8.2 4.8 79 1021.5 1.6 NNW 1.6 0.0 0.0
07:55 8.2 4.8 79 1021.5 1.6 NE 1.6 0.0 0.0
07:56 8.2 4.8 79 1021.5 1.6 NE 1.6 0.0 0.0
07:58 8.2 4.8 79 1021.4 1.6 WNW 1.6 0.0 0.0
07:59 8.3 4.9 79 1021.7 1.6 N 1.6 0.0 0.0
08:00 8.3 4.9 79 1021.5 1.6 N 1.6 0.0 0.0
08:01 8.3 4.9 79 1021.6 0.7 NNW 1.6 0.0 0.0
08:02 8.3 4.9 79 1021.4 1.6 NE 1.6 0.0 0.0
08:03 8.3 4.9 79 1021.5 1.6 NE 1.6 0.0 0.0
08:04 8.3 4.9 79 1021.6 0.7 NE 1.6 0.0 0.0
08:05 8.3 4.9 79 1021.6 0.7 N 1.6 0.0 0.0
08:06 8.3 4.9 79 1021.4 0.7 N 1.6 0.0 0.0
08:07 8.3 4.9 79 1021.6 0.7 NNW 1.6 0.0 0.0
08:08 8.3 4.9 79 1021.6 0.7 N 1.6 0.0 0.0
08:09 8.3 4.9 79 1021.5 0.0 NE 1.6 0.0 0.0
08:10 8.3 4.9 79 1021.5 0.7 E 1.6 0.0 0.0
08:12 8.3 4.9 79 1021.7 0.7 NE 1.6 0.0 0.0
08:13 8.3 4.9 79 1021.7 0.7 NNW 0.7 0.0 0.0
08:14 8.3 4.9 79 1021.7 0.7 NE 0.7 0.0 0.0
08:15 8.3 4.9 79 1021.5 0.0 NNW 0.7 0.0 0.0
08:16 8.3 4.9 79 1021.4 0.7 NNW 0.7 0.0 0.0
08:17 8.3 4.9 79 1021.4 0.7 NNW 0.7 0.0 0.0
08:18 8.3 4.9 79 1021.6 0.7 NE 0.7 0.0 0.0
08:19 8.3 4.9 79 1021.6 0.7 N 0.7 0.0 0.0
08:20 8.3 4.9 79 1021.4 0.0 NNW 0.7 0.0 0.0
08:21 8.2 4.8 79 1021.4 0.7 NW 0.7 0.0 0.0
08:22 8.2 4.6 78 1021.8 0.7 NE 0.7 0.0 0.0
08:23 8.2 4.6 78 1021.6 0.7 NE 0.7 0.0 0.0
08:24 8.2 4.6 78 1021.6 0.7 NE 0.7 0.0 0.0
08:26 8.2 4.6 78 1021.8 0.7 NNW 0.7 0.0 0.0
08:27 8.2 4.6 78 1021.8 0.0 N 0.7 0.0 0.0
08:28 8.1 4.5 78 1021.7 0.7 N 0.7 0.0 0.0
08:29 8.1 4.5 78 1021.8 0.7 NNW 0.7 0.0 0.0
08:30 8.1 4.5 78 1021.8 0.7 NE 0.7 0.0 0.0
08:31 8.1 4.5 78 1021.7 0.7 NE 0.7 0.0 0.0
08:32 8.1 4.5 78 1021.6 0.7 NE 0.7 0.0 0.0
08:33 8.1 4.5 78 1021.7 0.7 NE 0.7 0.0 0.0
08:34 8.1 4.5 78 1021.8 0.7 NNW 0.7 0.0 0.0
08:35 8.1 4.5 78 1021.6 0.7 NE 0.7 0.0 0.0
08:36 8.1 4.5 78 1021.9 0.7 NE 0.7 0.0 0.0
08:37 8.1 4.5 78 1021.9 1.6 NE 1.6 0.0 0.0
08:38 8.1 4.5 78 1021.7 1.6 N 1.6 0.0 0.0
08:40 8.1 4.5 78 1021.9 0.7 N 1.6 0.0 0.0
08:41 8.1 4.5 78 1021.9 0.7 NE 1.6 0.0 0.0
08:42 8.1 4.5 78 1022.0 1.6 E 1.6 0.0 0.0
08:43 8.1 4.5 78 1021.9 0.7 NE 1.6 0.0 0.0
08:44 8.1 4.5 78 1021.8 0.7 NE 1.6 0.0 0.0
08:45 8.1 4.5 78 1021.8 0.7 NE 1.6 0.0 0.0
08:46 8.2 4.6 78 1021.9 1.6 E 1.6 0.0 0.0
08:47 8.2 4.6 78 1022.0 1.6 NE 1.6 0.0 0.0
08:48 8.2 4.6 78 1022.0 0.7 NNW 1.6 0.0 0.0
08:49 8.2 4.6 78 1022.2 0.7 NNW 1.6 0.0 0.0
08:50 8.2 4.6 78 1022.2 1.6 NE 1.6 0.0 0.0
08:51 8.3 4.7 78 1021.9 0.7 NE 1.6 0.0 0.0
08:52 8.3 4.7 78 1022.0 0.7 N 1.6 0.0 0.0
08:54 8.3 4.7 78 1022.2 0.7 E 1.6 0.0 0.0
08:55 8.3 4.9 79 1022.2 0.7 NW 1.6 0.0 0.0
08:56 8.4 5.0 79 1022.0 0.7 NE 1.6 0.0 0.0
08:57 8.4 5.0 79 1022.0 0.7 NW 1.6 0.0 0.0
08:58 8.4 5.0 79 1022.1 0.7 NNW 1.6 0.0 0.0
08:59 8.4 5.0 79 1022.1 0.7 N 1.6 0.0 0.0
09:00 8.5 5.1 79 1022.0 0.7 N 1.6 0.0 0.0
09:01 8.5 5.1 79 1022.0 0.7 N 1.6 0.0 0.0
09:02 8.5 5.1 79 1021.9 0.7 N 1.6 0.0 0.0
09:03 8.5 5.1 79 1022.0 1.6 NE 1.6 0.0 0.0
09:04 8.5 5.1 79 1022.1 0.7 NNW 1.6 0.0 0.0
09:05 8.6 5.2 79 1022.0 0.7 NE 1.6 0.0 0.0
09:06 8.6 5.2 79 1021.9 1.6 NE 1.6 0.0 0.0
09:07 8.6 5.2 79 1022.1 1.6 NE 1.6 0.0 0.0
09:09 8.7 5.3 79 1022.1 0.7 NE 1.6 0.0 0.0
09:10 8.7 5.3 79 1022.0 0.7 NNW 1.6 0.0 0.0
09:11 8.7 5.3 79 1022.0 1.6 SE 1.6 0.0 0.0
09:12 8.7 5.3 79 1022.1 3.8 SE 3.8 0.0 0.0
09:13 8.8 5.4 79 1022.1 0.7 SE 3.8 0.0 0.0
09:14 8.8 5.4 79 1021.9 0.7 S 3.8 0.0 0.0
09:15 8.8 5.4 79 1022.0 1.6 E 3.8 0.0 0.0
09:16 8.8 5.4 79 1022.2 1.6 S 3.8 0.0 0.0
09:17 8.8 5.4 79 1022.0 2.2 SE 3.8 0.0 0.0
09:18 8.8 5.4 79 1022.1 2.2 S 3.8 0.0 0.0
09:19 8.9 5.5 79 1022.1 1.6 SW 3.8 0.0 0.0
09:20 8.9 5.5 79 1021.9 3.1 S 3.8 0.0 0.0
09:21 9.0 5.6 79 1022.2 1.6 SE 3.8 0.0 0.0
09:23 9.0 5.6 79 1022.2 1.6 S 3.1 0.0 0.0
09:24 9.0 5.6 79 1022.2 1.6 S 3.1 0.0 0.0
09:25 9.0 5.6 79 1022.1 1.6 S 3.1 0.0 0.0
09:26 9.0 5.6 79 1022.0 0.7 S 3.1 0.0 0.0
09:27 9.1 5.7 79 1022.2 1.6 E 3.1 0.0 0.0
09:28 9.1 5.7 79 1022.2 1.6 E 3.1 0.0 0.0
09:29 9.1 5.7 79 1022.1 1.6 NE 3.1 0.0 0.0
09:30 9.1 5.7 79 1022.0 0.7 SE 3.1 0.0 0.0
09:31 9.1 5.7 79 1021.9 1.6 N 1.6 0.0 0.0
09:32 9.1 5.7 79 1021.8 0.7 N 1.6 0.0 0.0
09:33 9.2 5.9 80 1021.8 0.7 S 1.6 0.0 0.0
09:34 9.2 5.9 80 1021.8 1.6 NW 2.2 0.0 0.0
09:35 9.3 6.0 80 1021.8 2.2 NE 2.2 0.0 0.0
09:37 9.4 6.1 80 1021.8 2.2 N 2.2 0.0 0.0
09:38 9.4 6.1 80 1021.8 2.2 N 2.2 0.0 0.0
09:39 9.5 6.2 80 1021.7 2.2 NE 2.2 0.0 0.0
09:40 9.5 6.2 80 1021.8 2.2 NE 2.2 0.0 0.0
09:41 9.5 6.2 80 1021.8 0.7 NNW 2.2 0.0 0.0
09:42 9.6 6.3 80 1021.6 1.6 NNW 2.2 0.0 0.0
09:43 9.6 6.3 80 1021.8 1.6 NE 2.2 0.0 0.0
09:45 9.7 6.4 80 1021.8 0.7 S 2.2 0.0 0.0
09:46 9.8 6.5 80 1021.8 1.6 SE 2.2 0.0 0.0
09:48 9.9 6.6 80 1021.9 3.1 S 3.1 0.0 0.0
09:49 9.9 6.6 80 1022.0 3.1 NNW 3.1 0.0 0.0
09:50 10.0 6.7 80 1021.9 3.8 NNW 3.8 0.0 0.0
09:51 10.0 6.7 80 1021.9 3.1 W 3.8 0.0 0.0
09:52 10.0 6.7 80 1021.9 3.1 W 3.8 0.0 0.0
09:53 10.1 6.8 80 1021.9 3.1 S 3.8 0.0 0.0
09:54 10.1 6.8 80 1021.8 3.1 S 3.8 0.0 0.0
09:55 10.2 6.9 80 1022.0 3.8 N 3.8 0.0 0.0
09:56 10.2 6.9 80 1021.9 3.8 S 3.8 0.0 0.0
09:57 10.2 6.9 80 1021.9 3.8 SE 3.8 0.0 0.0
09:58 10.3 7.0 80 1022.2 4.5 S 4.5 0.0 0.0
09:59 10.3 7.0 80 1022.0 4.5 S 4.5 0.0 0.0
10:00 10.4 7.1 80 1021.9 3.8 S 4.5 0.0 0.0
10:02 10.4 7.1 80 1022.0 3.8 S 4.5 0.0 0.0
10:03 10.6 7.3 80 1021.9 2.2 W 6.0 0.0 0.0
10:04 10.6 7.3 80 1022.0 3.8 SE 6.0 0.0 0.0
10:05 10.6 7.3 80 1021.8 3.8 SW 6.0 0.0 0.0
10:06 10.7 7.4 80 1022.0 3.8 NE 6.0 0.0 0.0
10:07 10.7 7.4 80 1021.9 3.1 S 6.0 0.0 0.0
10:08 10.7 7.4 80 1022.0 3.1 S 6.0 0.0 0.0
10:09 10.8 7.5 80 1021.9 3.1 SE 6.0 0.0 0.0
10:10 10.8 7.5 80 1021.8 4.5 SE 6.0 0.0 0.0
10:11 10.9 7.6 80 1021.9 5.4 SE 6.0 0.0 0.0
10:12 10.9 7.6 80 1021.8 4.5 S 6.0 0.0 0.0
10:13 11.0 7.7 80 1022.1 3.8 S 5.4 0.0 0.0
10:14 11.0 7.7 80 1021.9 3.1 S 5.4 0.0 0.0
10:15 11.1 7.8 80 1022.2 3.1 NE 5.4 0.0 0.0
10:16 11.1 7.8 80 1022.0 3.1 S 5.4 0.0 0.0
10:17 11.1 7.8 80 1022.0 3.8 S 5.4 0.0 0.0
10:18 11.2 7.9 80 1022.2 3.8 SE 6.0 0.0 0.0
10:19 11.3 7.8 79 1022.1 3.8 SE 6.0 0.0 0.0
10:20 11.3 7.8 79 1022.0 4.5 S 6.0 0.0 0.0
10:21 11.3 7.8 79 1021.8 4.5 S 6.0 0.0 0.0
10:23 11.5 8.0 79 1021.9 6.0 SE 6.0 0.0 0.0
10:24 11.5 8.0 79 1021.8 5.4 S 6.0 0.0 0.0
10:25 11.6 8.1 79 1021.8 3.1 S 6.0 0.0 0.0
10:26 11.6 8.1 79 1021.9 2.2 SE 6.0 0.0 0.0
10:27 11.7 8.0 78 1021.9 6.0 SW 6.0 0.0 0.0
10:28 11.7 8.0 78 1021.9 6.0 SW 6.0 0.0 0.0
10:29 11.7 8.0 78 1022.0 6.0 SE 6.0 0.0 0.0
10:30 11.7 8.0 78 1021.7 4.5 S 6.0 0.0 0.0
10:31 11.8 8.1 78 1022.0 4.5 S 6.0 0.0 0.0
10:32 11.8 8.1 78 1021.9 6.9 SE 6.9 0.0 0.0
10:33 11.9 8.2 78 1022.0 4.5 ESE 6.9 0.0 0.0
10:34 11.9 8.2 78 1021.8 3.1 S 6.9 0.0 0.0
10:35 12.0 8.1 77 1021.9 6.0 SW 6.9 0.0 0.0
10:36 12.0 8.1 77 1021.9 3.1 SE 6.9 0.0 0.0
10:38 12.0 8.1 77 1021.9 1.6 S 6.9 0.0 0.0
10:39 12.1 8.2 77 1022.0 3.1 W 6.9 0.0 0.0
10:40 12.1 8.2 77 1022.0 3.1 S 6.9 0.0 0.0
10:41 12.2 8.3 77 1022.0 6.0 SE 6.9 0.0 0.0
10:42 12.2 8.3 77 1022.0 5.4 ESE 6.9 0.0 0.0
10:43 12.2 8.3 77 1021.8 3.8 W 6.0 0.0 0.0
10:44 12.3 8.4 77 1021.8 2.2 S 6.0 0.0 0.0
10:45 12.3 8.4 77 1021.9 3.1 S 6.0 0.0 0.0
10:46 12.4 8.5 77 1021.9 6.9 S 6.9 0.0 0.0
10:47 12.5 7.8 73 1022.0 3.8 S 6.9 0.0 0.0
10:48 12.5 7.8 73 1021.8 5.4 SW 6.9 0.0 0.0
10:49 12.5 7.8 73 1021.8 5.4 SW 6.9 0.0 0.0
10:50 12.7 7.8 72 1021.8 4.5 S 6.9 0.0 0.0
10:52 13.0 8.1 72 1021.9 4.5 S 6.9 0.0 0.0
10:53 13.0 8.1 72 1021.9 4.5 S 6.9 0.0 0.0
10:54 13.1 8.2 72 1022.1 3.8 SW 6.9 0.0 0.0
10:55 13.2 8.3 72 1021.8 3.8 SW 6.9 0.0 0.0
10:56 13.2 8.3 72 1021.8 3.8 SW 6.9 0.0 0.0
10:57 13.2 8.3 72 1022.0 3.8 SW 5.4 0.0 0.0
10:58 13.3 7.9 70 1022.0 6.9 S 6.9 0.0 0.0
10:59 13.4 8.0 70 1022.1 6.0 SW 6.9 0.0 0.0
11:00 13.4 8.0 70 1021.9 6.0 SE 6.9 0.0 0.0
11:01 13.4 8.0 70 1021.8 6.0 SE 6.9 0.0 0.0
11:02 13.4 8.0 70 1021.9 6.0 SE 6.9 0.0 0.0
11:03 13.4 8.0 70 1022.0 6.0 SE 6.9 0.0 0.0
11:04 13.4 8.0 70 1022.1 6.0 SE 6.9 0.0 0.0
11:06 13.5 7.7 68 1022.1 8.3 S 8.3 0.0 0.0
11:07 13.5 7.5 67 1022.1 9.8 SSW 9.8 0.0 0.0
11:08 13.5 7.5 67 1021.9 7.6 S 9.8 0.0 0.0
11:09 13.5 7.3 66 1022.0 6.0 SW 9.8 0.0 0.0
11:10 13.5 7.3 66 1022.0 6.0 SW 9.8 0.0 0.0
11:11 13.5 7.5 67 1021.7 6.0 S 9.8 0.0 0.0
11:12 13.6 7.6 67 1021.9 8.3 S 9.8 0.0 0.0
11:13 13.6 7.4 66 1021.9 6.0 S 9.8 0.0 0.0
11:14 13.6 7.4 66 1022.0 6.9 SE 9.8 0.0 0.0
11:15 13.6 7.4 66 1022.1 6.0 SE 9.8 0.0 0.0
11:16 13.6 7.4 66 1022.1 9.2 SE 9.8 0.0 0.0
11:17 13.6 7.4 66 1021.9 6.9 SW 9.8 0.0 0.0
11:18 13.6 7.4 66 1022.0 6.0 S 9.8 0.0 0.0
11:19 13.6 7.4 66 1022.1 4.5 S 9.2 0.0 0.0
11:20 13.6 7.4 66 1022.0 6.0 S 9.2 0.0 0.0
11:21 13.6 7.6 67 1022.0 6.0 S 9.2 0.0 0.0
11:22 13.7 7.7 67 1022.0 4.5 S 9.2 0.0 0.0
11:24 13.8 7.8 67 1021.9 6.0 SE 9.2 0.0 0.0
11:25 13.8 7.6 66 1021.9 6.0 S 9.2 0.0 0.0
11:26 13.8 7.6 66 1021.8 6.0 S 6.9 0.0 0.0
11:27 13.7 7.5 66 1021.8 6.0 E 6.9 0.0 0.0
11:28 13.7 7.5 66 1021.8 6.0 E 6.0 0.0 0.0
11:29 13.7 7.5 66 1021.9 6.9 S 6.9 0.0 0.0
11:30 13.7 7.5 66 1021.8 6.9 S 6.9 0.0 0.0
11:31 13.6 7.1 65 1021.8 6.9 SE 9.2 0.0 0.0
11:32 13.6 7.1 65 1021.7 5.4 S 9.2 0.0 0.0
11:33 13.6 7.1 65 1021.8 5.4 S 9.2 0.0 0.0
11:34 13.7 7.2 65 1021.9 9.8 S 9.8 0.0 0.0
11:35 13.7 7.2 65 1021.9 10.7 S 10.7 0.0 0.0
11:36 13.7 7.2 65 1021.9 6.9 S 10.7 0.0 0.0
11:38 13.8 7.3 65 1021.9 7.6 S 10.7 0.0 0.0
11:39 13.8 7.3 65 1022.1 8.3 S 10.7 0.0 0.0
11:40 13.8 7.3 65 1022.0 6.9 S 10.7 0.0 0.0
11:41 13.9 7.4 65 1021.8 6.9 S 10.7 0.0 0.0
11:42 13.9 7.4 65 1022.1 6.0 S 10.7 0.0 0.0
11:43 13.9 7.4 65 1021.9 6.9 S 10.7 0.0 0.0
11:44 14.0 7.5 65 1021.9 6.0 SE 10.7 0.0 0.0
11:45 14.0 7.5 65 1021.8 6.0 S 10.7 0.0 0.0
11:46 14.2 7.9 66 1021.9 6.0 SE 9.8 0.0 0.0
11:47 14.2 7.9 66 1021.8 7.6 SE 9.8 0.0 0.0
11:48 14.2 7.7 65 1021.8 6.0 S 8.3 0.0 0.0
11:49 14.2 7.7 65 1021.9 7.6 SE 8.3 0.0 0.0
11:50 14.1 7.4 64 1021.8 6.0 S 7.6 0.0 0.0
11:52 14.2 7.5 64 1022.0 8.3 NW 8.3 0.0 0.0
11:53 14.2 7.5 64 1022.0 6.9 E 8.3 0.0 0.0
11:54 14.3 7.6 64 1022.0 4.5 SW 8.3 0.0 0.0
11:55 14.3 7.6 64 1022.2 3.8 E 8.3 0.0 0.0
11:56 14.3 7.6 64 1022.2 3.8 E 8.3 0.0 0.0
11:57 14.4 7.7 64 1022.0 3.1 NE 8.3 0.0 0.0
11:58 14.6 8.1 65 1022.0 7.6 S 8.3 0.0 0.0
11:59 14.7 8.2 65 1022.0 7.6 S 8.3 0.0 0.0
12:00 14.8 8.1 64 1022.2 10.7 SW 10.7 0.0 0.0
12:01 14.8 8.1 64 1022.1 10.7 SW 10.7 0.0 0.0
12:02 14.8 8.1 64 1022.4 10.7 SW 10.7 0.0 0.0
12:03 14.8 7.8 63 1021.9 8.3 E 10.7 0.0 0.0
12:04 14.7 7.7 63 1022.0 6.9 S 10.7 0.0 0.0
12:06 14.6 7.4 62 1022.2 6.9 SE 10.7 0.0 0.0
12:07 14.5 7.3 62 1022.2 6.0 S 10.7 0.0 0.0
12:08 14.5 7.5 63 1022.0 6.0 NE 10.7 0.0 0.0
12:09 14.4 7.2 62 1022.0 5.4 SW 10.7 0.0 0.0
12:10 14.4 7.2 62 1022.1 6.9 SW 10.7 0.0 0.0
12:11 14.3 7.1 62 1022.1 6.9 W 10.7 0.0 0.0
12:12 14.3 7.1 62 1022.0 5.4 NE 10.7 0.0 0.0
12:13 14.2 7.3 63 1021.9 3.8 S 9.2 0.0 0.0
12:14 14.1 7.2 63 1022.1 3.1 SE 9.2 0.0 0.0
12:15 14.0 7.1 63 1022.1 3.8 SE 9.2 0.0 0.0
12:16 14.0 7.1 63 1022.0 4.5 N 6.9 0.0 0.0
12:17 13.9 7.0 63 1021.9 6.0 SW 6.9 0.0 0.0
12:18 13.9 7.0 63 1022.0 3.1 E 6.9 0.0 0.0
12:20 13.8 7.1 64 1022.1 2.2 NE 6.9 0.0 0.0
12:21 13.8 7.1 64 1022.0 2.2 NW 6.0 0.0 0.0
12:22 13.8 7.1 64 1022.0 3.1 SE 6.0 0.0 0.0
12:23 13.7 7.0 64 1021.9 4.5 SW 6.0 0.0 0.0
12:24 13.7 7.0 64 1021.9 4.5 SW 6.0 0.0 0.0
12:25 13.7 7.0 64 1021.9 9.2 S 9.2 0.0 0.0
12:26 13.7 7.0 64 1021.8 3.1 N 9.2 0.0 0.0
12:27 13.6 6.9 64 1021.8 3.8 NE 9.2 0.0 0.0
12:28 13.6 6.9 64 1022.0 4.5 NE 9.2 0.0 0.0
12:29 13.6 6.9 64 1021.9 3.1 SE 9.2 0.0 0.0
12:30 13.7 7.0 64 1021.8 3.8 NE 9.2 0.0 0.0
12:31 13.7 7.2 65 1022.0 2.2 NE 9.2 0.0 0.0
12:32 13.8 7.3 65 1022.0 5.4 NE 9.2 0.0 0.0
12:34 13.9 7.7 66 1021.9 3.1 SW 9.2 0.0 0.0
12:35 14.0 7.8 66 1022.0 5.4 SE 5.4 0.0 0.0
12:36 14.0 7.8 66 1022.1 5.4 S 5.4 0.0 0.0
12:37 14.1 7.8 66 1021.9 3.8 S 5.4 0.0 0.0
12:38 14.1 7.8 66 1021.9 4.5 SE 5.4 0.0 0.0
12:39 14.1 7.8 66 1021.8 6.0 S 6.0 0.0 0.0
12:40 14.2 7.9 66 1022.1 8.3 E 8.3 0.0 0.0
12:41 14.2 7.7 65 1022.0 4.5 W 8.3 0.0 0.0
12:42 14.1 7.4 64 1022.3 6.9 S 8.3 0.0 0.0
12:43 14.1 7.4 64 1022.1 5.4 S 8.3 0.0 0.0
12:44 14.1 7.4 64 1022.0 6.0 W 8.3 0.0 0.0
12:45 14.1 7.4 64 1022.0 4.5 E 8.3 0.0 0.0
12:46 14.1 7.4 64 1022.1 5.4 SW 8.3 0.0 0.0
12:48 14.0 7.3 64 1022.0 5.4 S 8.3 0.0 0.0
12:49 14.0 7.3 64 1022.0 5.4 S 8.3 0.0 0.0
12:50 14.0 7.3 64 1022.0 4.5 NW 7.6 0.0 0.0
12:51 14.0 7.3 64 1022.0 4.5 S 7.6 0.0 0.0
12:52 14.0 7.3 64 1022.0 4.5 S 7.6 0.0 0.0
12:53 14.0 7.3 64 1021.9 6.9 ESE 7.6 0.0 0.0
12:54 14.0 7.3 64 1021.5 4.5 S 7.6 0.0 0.0
12:55 14.0 7.3 64 1021.9 6.0 S 7.6 0.0 0.0
12:56 14.0 7.3 64 1021.8 6.0 NE 6.9 0.0 0.0
12:57 14.0 7.3 64 1021.9 5.4 NE 6.9 0.0 0.0
12:58 14.0 7.3 64 1021.8 5.4 SW 6.9 0.0 0.0
12:59 14.0 7.1 63 1021.8 5.4 SW 6.9 0.0 0.0
13:00 14.0 7.1 63 1021.8 7.6 S 7.6 0.0 0.0
13:02 14.0 7.1 63 1021.6 7.6 S 7.6 0.0 0.0
13:03 14.0 7.3 64 1021.9 3.1 SW 7.6 0.0 0.0
13:04 14.1 7.4 64 1021.7 6.0 SE 7.6 0.0 0.0
13:05 14.1 7.4 64 1021.7 8.3 S 8.3 0.0 0.0
13:06 14.1 7.4 64 1021.7 4.5 SSE 8.3 0.0 0.0
13:07 14.1 7.4 64 1021.7 6.9 S 8.3 0.0 0.0
13:08 14.2 7.5 64 1021.7 10.7 S 10.7 0.0 0.0
13:09 14.1 7.2 63 1021.6 10.7 S 10.7 0.0 0.0
13:10 14.1 7.2 63 1021.6 8.3 SE 10.7 0.0 0.0
13:11 14.1 7.2 63 1021.9 6.0 S 10.7 0.0 0.0
13:12 14.1 7.2 63 1021.7 6.0 S 10.7 0.0 0.0
13:13 14.1 7.2 63 1021.9 6.9 N 10.7 0.0 0.0
13:14 14.0 7.1 63 1021.8 6.9 SE 10.7 0.0 0.0
13:15 14.0 7.1 63 1021.8 6.9 S 10.7 0.0 0.0
13:16 14.0 7.1 63 1021.7 7.6 S 10.7 0.0 0.0
13:17 14.0 7.1 63 1021.9 6.9 SSW 10.7 0.0 0.0
13:18 14.0 7.1 63 1021.8 8.3 S 10.7 0.0 0.0
13:19 14.0 7.1 63 1021.8 6.0 S 10.7 0.0 0.0
13:20 14.0 7.1 63 1021.7 6.0 S 8.3 0.0 0.0
13:22 14.0 7.1 63 1021.8 7.6 SE 8.3 0.0 0.0
13:23 14.0 7.1 63 1021.8 7.6 S 8.3 0.0 0.0
13:24 14.0 7.1 63 1021.8 7.6 S 8.3 0.0 0.0
13:25 14.0 7.1 63 1021.9 7.6 S 8.3 0.0 0.0
13:26 14.0 7.1 63 1021.8 10.7 S 10.7 0.0 0.0
13:27 13.9 7.0 63 1021.9 11.4 SW 11.4 0.0 0.0
13:28 13.9 6.7 62 1021.7 8.3 S 11.4 0.0 0.0
13:29 13.9 6.7 62 1021.9 7.6 S 11.4 0.0 0.0
13:30 13.8 6.6 62 1021.9 6.0 SE 11.4 0.0 0.0
13:31 13.7 6.6 62 1021.8 6.9 S 11.4 0.0 0.0
13:32 13.7 6.6 62 1021.7 6.9 S 11.4 0.0 0.0
13:33 13.6 6.7 63 1021.9 6.0 S 11.4 0.0 0.0
13:34 13.6 6.7 63 1021.5 4.5 S 11.4 0.0 0.0
13:36 13.5 6.6 63 1021.7 6.0 SW 11.4 0.0 0.0
13:37 13.5 6.8 64 1021.7 3.8 NE 8.3 0.0 0.0
13:38 13.5 6.8 64 1021.6 7.6 S 8.3 0.0 0.0
13:39 13.6 6.9 64 1021.6 6.9 S 8.3 0.0 0.0
13:40 13.6 6.9 64 1021.8 4.5 SW 8.3 0.0 0.0
13:41 13.6 6.9 64 1021.7 4.5 SW 7.6 0.0 0.0
13:42 13.6 6.9 64 1021.7 3.8 E 7.6 0.0 0.0
13:43 13.6 6.9 64 1021.8 3.8 S 7.6 0.0 0.0
13:44 13.7 7.0 64 1021.6 5.4 S 7.6 0.0 0.0
13:45 13.7 7.0 64 1021.5 3.8 SE 7.6 0.0 0.0
13:46 13.8 7.1 64 1021.6 6.9 S 7.6 0.0 0.0
13:47 13.8 7.1 64 1021.5 6.0 S 7.6 0.0 0.0
13:48 14.1 7.6 65 1021.6 5.4 W 6.9 0.0 0.0
13:50 14.3 7.6 64 1021.5 9.8 S 9.8 0.0 0.0
13:51 14.3 7.4 63 1021.4 9.2 S 9.8 0.0 0.0
13:52 14.3 7.4 63 1021.7 6.0 S 9.8 0.0 0.0
13:53 14.2 7.0 62 1021.6 8.3 S 9.8 0.0 0.0
13:54 14.2 7.0 62 1021.7 7.6 SSE 9.8 0.0 0.0
13:55 14.1 6.9 62 1021.6 7.6 S 9.8 0.0 0.0
13:56 14.0 6.8 62 1021.4 6.0 S 9.8 0.0 0.0
13:57 14.0 6.8 62 1021.5 6.0 SW 9.8 0.0 0.0
13:58 13.9 6.7 62 1021.6 6.9 S 9.8 0.0 0.0
13:59 13.8 6.6 62 1021.6 5.4 S 9.8 0.0 0.0
14:00 13.8 6.6 62 1021.4 6.0 S 9.8 0.0 0.0
14:01 13.8 6.6 62 1021.6 6.0 S 9.2 0.0 0.0
14:02 13.8 6.6 62 1021.4 6.0 S 8.3 0.0 0.0
14:04 13.8 6.6 62 1021.5 6.0 S 8.3 0.0 0.0
14:05 13.6 6.5 62 1021.3 11.4 S 11.4 0.0 0.0
14:06 13.6 6.5 62 1021.4 11.4 S 11.4 0.0 0.0
14:07 13.5 6.6 63 1021.6 6.0 S 11.4 0.0 0.0
14:08 13.5 6.6 63 1021.5 6.9 S 11.4 0.0 0.0
14:09 13.5 6.6 63 1021.6 6.9 SSW 11.4 0.0 0.0
14:10 13.4 6.5 63 1021.4 6.0 SW 11.4 0.0 0.0
14:11 13.4 6.5 63 1021.5 9.2 SE 11.4 0.0 0.0
14:12 13.4 6.5 63 1021.5 9.2 SE 11.4 0.0 0.0
14:13 13.4 6.5 63 1021.4 8.3 S 11.4 0.0 0.0
14:14 13.3 6.4 63 1021.5 7.6 S 11.4 0.0 0.0
14:15 13.3 6.4 63 1021.2 7.6 SE 11.4 0.0 0.0
14:16 13.3 6.4 63 1021.3 9.8 SW 10.7 0.0 0.0
14:18 13.3 6.4 63 1021.4 7.6 S 10.7 0.0 0.0
14:19 13.3 6.4 63 1021.1 6.9 S 10.7 0.0 0.0
14:20 13.3 6.4 63 1021.4 9.2 S 10.7 0.0 0.0
14:21 13.4 6.7 64 1021.1 6.0 SW 10.7 0.0 0.0
14:22 13.5 6.8 64 1021.0 5.4 SW 10.7 0.0 0.0
14:23 13.5 6.8 64 1021.3 9.8 S 10.7 0.0 0.0
14:24 13.6 6.9 64 1021.3 7.6 SW 9.8 0.0 0.0
14:25 13.6 6.9 64 1021.2 6.0 SW 9.8 0.0 0.0
14:26 13.8 7.1 64 1021.1 8.3 SW 9.8 0.0 0.0
14:27 13.8 7.1 64 1021.2 6.9 S 9.8 0.0 0.0
14:28 13.9 7.4 65 1021.1 7.6 S 9.8 0.0 0.0
14:29 14.0 7.5 65 1021.3 6.9 SE 9.8 0.0 0.0
14:30 14.2 7.7 65 1021.1 7.6 S 9.8 0.0 0.0
14:32 14.4 7.7 64 1021.1 7.6 SW 9.8 0.0 0.0
14:33 14.5 7.8 64 1021.2 7.6 S 8.3 0.0 0.0
14:34 14.6 7.9 64 1021.2 4.5 S 8.3 0.0 0.0
14:35 14.6 7.9 64 1021.1 9.2 SW 9.2 0.0 0.0
14:36 14.7 7.7 63 1021.0 6.0 SE 9.2 0.0 0.0
14:37 14.7 7.7 63 1021.0 3.1 SW 9.2 0.0 0.0
14:38 14.7 7.7 63 1021.0 6.9 S 9.2 0.0 0.0
14:39 14.7 7.7 63 1020.9 7.6 S 9.2 0.0 0.0
14:40 14.6 7.6 63 1021.2 7.6 S 9.2 0.0 0.0
14:41 14.6 7.6 63 1021.0 5.4 S 9.2 0.0 0.0
14:42 14.6 7.6 63 1021.3 7.6 S 9.2 0.0 0.0
14:43 14.6 7.6 63 1020.8 6.9 S 9.2 0.0 0.0
14:44 14.5 7.3 62 1021.2 5.4 S 9.2 0.0 0.0
14:46 14.4 7.2 62 1020.9 4.5 S 7.6 0.0 0.0
14:47 14.4 7.5 63 1020.8 4.5 NW 7.6 0.0 0.0
14:48 14.4 7.5 63 1021.1 5.4 SW 7.6 0.0 0.0
14:49 14.4 7.5 63 1020.9 5.4 SE 7.6 0.0 0.0
14:50 14.4 7.5 63 1020.9 5.4 SE 7.6 0.0 0.0
14:51 14.4 7.5 63 1021.1 8.3 S 8.3 0.0 0.0
14:52 14.4 7.5 63 1021.0 7.6 SE 8.3 0.0 0.0
14:53 14.4 7.5 63 1021.0 6.9 S 8.3 0.0 0.0
14:54 14.3 7.1 62 1020.8 10.7 S 10.7 0.0 0.0
14:55 14.2 7.0 62 1021.1 7.6 SW 10.7 0.0 0.0
14:56 14.2 7.0 62 1021.0 7.6 S 10.7 0.0 0.0
14:57 14.1 6.9 62 1020.8 7.6 SE 10.7 0.0 0.0
14:58 13.9 6.7 62 1020.7 9.8 SW 10.7 0.0 0.0
15:00 13.9 6.7 62 1020.8 8.3 S 10.7 0.0 0.0
15:01 13.9 6.7 62 1020.8 8.3 S 10.7 0.0 0.0
15:02 13.9 6.7 62 1020.8 8.3 S 10.7 0.0 0.0
15:03 13.9 6.7 62 1020.7 8.3 S 10.7 0.0 0.0
15:04 13.9 6.7 62 1021.0 8.3 S 9.8 0.0 0.0
15:05 13.9 6.7 62 1021.0 8.3 S 9.8 0.0 0.0
15:06 13.7 6.6 62 1020.9 9.2 S 9.8 0.0 0.0
15:07 13.6 6.7 63 1021.0 4.5 S 9.8 0.0 0.0
15:08 13.6 6.7 63 1020.7 4.5 S 9.8 0.0 0.0
15:09 13.6 6.7 63 1020.9 4.5 S 9.2 0.0 0.0
15:10 13.5 6.6 63 1021.0 5.4 SW 9.2 0.0 0.0
15:11 13.5 6.6 63 1020.8 5.4 SW 9.2 0.0 0.0
15:12 13.4 6.5 63 1020.8 6.0 SE 9.2 0.0 0.0
15:14 13.4 6.5 63 1020.8 6.0 S 9.2 0.0 0.0
15:15 13.4 6.5 63 1020.8 6.9 SE 9.2 0.0 0.0
15:16 13.4 6.5 63 1020.9 6.9 SE 9.2 0.0 0.0
15:17 13.4 6.5 63 1020.9 6.9 SE 6.9 0.0 0.0
15:18 13.3 6.6 64 1020.9 6.0 SW 6.9 0.0 0.0
15:19 13.3 6.6 64 1020.8 4.5 S 6.9 0.0 0.0
15:20 13.3 6.6 64 1020.9 5.4 S 6.9 0.0 0.0
15:21 13.3 6.6 64 1020.9 5.4 SE 6.9 0.0 0.0
15:23 13.3 6.6 64 1020.8 5.4 SE 6.9 0.0 0.0
15:24 13.2 6.5 64 1020.8 7.6 E 7.6 0.0 0.0
15:25 13.2 6.5 64 1020.8 7.6 S 7.6 0.0 0.0
15:26 13.2 6.5 64 1020.7 6.9 S 7.6 0.0 0.0
15:27 13.2 6.5 64 1020.8 6.9 SW 7.6 0.0 0.0
15:28 13.2 6.5 64 1020.9 6.9 SW 7.6 0.0 0.0
15:29 13.2 6.8 65 1020.7 5.4 S 7.6 0.0 0.0
15:30 13.2 6.8 65 1020.7 5.4 S 7.6 0.0 0.0
15:31 13.2 6.8 65 1020.6 4.5 S 7.6 0.0 0.0
15:32 13.2 7.0 66 1020.6 6.0 S 7.6 0.0 0.0
15:33 13.2 7.0 66 1020.7 6.9 S 7.6 0.0 0.0
15:34 13.3 7.1 66 1020.8 9.8 S 9.8 0.0 0.0
15:35 13.3 7.1 66 1020.9 9.8 S 9.8 0.0 0.0
15:37 13.3 7.1 66 1020.7 9.2 S 9.8 0.0 0.0
15:38 13.4 7.2 66 1020.6 5.4 S 9.8 0.0 0.0
15:39 13.4 7.2 66 1020.6 4.5 S 9.8 0.0 0.0
15:40 13.5 7.3 66 1020.6 6.9 S 9.8 0.0 0.0
15:41 13.5 7.3 66 1020.6 6.9 S 9.8 0.0 0.0
15:42 13.5 7.3 66 1020.7 5.4 S 9.8 0.0 0.0
15:43 13.6 7.4 66 1020.9 6.0 S 9.8 0.0 0.0
15:44 13.6 7.4 66 1020.7 6.0 SE 9.8 0.0 0.0
15:45 13.6 7.1 65 1020.8 6.9 SE 9.8 0.0 0.0
15:46 13.6 7.1 65 1020.9 5.4 S 9.8 0.0 0.0
15:47 13.6 7.1 65 1020.6 5.4 S 9.2 0.0 0.0
15:48 13.6 6.9 64 1021.0 9.2 S 9.2 0.0 0.0
15:49 13.6 6.9 64 1020.8 9.2 S 9.2 0.0 0.0
15:51 13.7 7.0 64 1020.8 9.2 SW 10.7 0.0 0.0
15:52 13.6 6.9 64 1020.9 7.6 S 10.7 0.0 0.0
15:53 13.6 6.9 64 1020.6 7.6 S 10.7 0.0 0.0
15:54 13.6 6.9 64 1020.7 7.6 S 10.7 0.0 0.0
15:55 13.5 6.6 63 1020.8 7.6 S 10.7 0.0 0.0
15:56 13.5 6.8 64 1020.6 9.8 S 10.7 0.0 0.0
15:57 13.5 6.8 64 1020.8 9.8 S 10.7 0.0 0.0
15:58 13.5 6.8 64 1020.9 6.9 SW 10.7 0.0 0.0
15:59 13.5 6.8 64 1020.9 6.9 SW 10.7 0.0 0.0
16:00 13.4 6.7 64 1020.7 7.6 SW 10.7 0.0 0.0
16:01 13.4 6.7 64 1020.6 7.6 SW 9.8 0.0 0.0
16:02 13.4 6.7 64 1021.0 7.6 SW 9.8 0.0 0.0
16:03 13.4 6.7 64 1020.8 7.6 SW 9.8 0.0 0.0
16:05 13.4 6.7 64 1020.8 7.6 SW 9.8 0.0 0.0
16:06 13.5 7.1 65 1020.6 8.3 SE 9.8 0.0 0.0
16:07 13.6 7.1 65 1020.7 7.6 SW 9.8 0.0 0.0
16:08 13.7 7.2 65 1020.8 6.9 SW 8.3 0.0 0.0
16:09 13.7 7.2 65 1020.8 6.9 SW 8.3 0.0 0.0
16:10 13.7 7.2 65 1020.9 5.4 SE 8.3 0.0 0.0
16:11 13.7 7.2 65 1020.6 8.3 SE 8.3 0.0 0.0
16:12 13.7 7.2 65 1020.6 8.3 SE 8.3 0.0 0.0
16:13 13.7 7.0 64 1020.8 7.6 S 8.3 0.0 0.0
16:14 13.7 7.0 64 1020.6 9.2 S 9.2 0.0 0.0
16:15 13.7 7.0 64 1020.7 9.2 S 9.2 0.0 0.0
16:16 13.7 7.0 64 1020.8 9.2 S 9.2 0.0 0.0
16:17 13.6 6.7 63 1020.8 9.8 S 9.8 0.0 0.0
16:19 13.5 6.6 63 1020.7 9.2 SW 9.8 0.0 0.0
16:20 13.4 6.5 63 1020.6 8.3 SW 9.8 0.0 0.0
16:21 13.4 6.5 63 1020.5 9.8 SW 9.8 0.0 0.0
16:22 13.4 6.5 63 1020.6 9.8 SW 9.8 0.0 0.0
16:23 13.4 6.5 63 1020.6 9.8 SW 9.8 0.0 0.0
16:24 13.4 6.5 63 1020.6 9.8 SW 9.8 0.0 0.0
16:25 13.3 6.4 63 1020.6 9.2 S 9.8 0.0 0.0
16:26 13.3 6.4 63 1020.6 9.2 S 9.8 0.0 0.0
16:27 13.3 6.4 63 1020.4 12.1 S 12.1 0.0 0.0
16:28 13.3 6.4 63 1020.5 12.1 S 12.1 0.0 0.0
16:29 13.3 6.4 63 1020.4 6.9 S 12.1 0.0 0.0
16:30 13.3 6.4 63 1020.4 6.0 SW 12.1 0.0 0.0
16:31 13.3 6.4 63 1020.6 7.6 SE 12.1 0.0 0.0
16:32 13.3 6.4 63 1020.5 6.9 S 12.1 0.0 0.0
16:34 13.2 6.3 63 1020.2 8.3 S 12.1 0.0 0.0
16:35 13.2 6.3 63 1020.2 8.3 S 12.1 0.0 0.0
16:36 13.2 6.3 63 1020.5 6.9 SW 12.1 0.0 0.0
16:37 13.2 6.3 63 1020.5 6.9 SW 12.1 0.0 0.0
16:38 13.1 6.2 63 1020.4 6.9 S 12.1 0.0 0.0
16:39 13.1 6.2 63 1020.5 6.9 S 10.7 0.0 0.0
16:40 13.1 6.2 63 1020.4 6.9 S 10.7 0.0 0.0
16:41 13.1 6.2 63 1020.2 6.0 SW 8.3 0.0 0.0
16:42 13.1 6.2 63 1020.4 7.6 S 8.3 0.0 0.0
16:43 13.0 6.1 63 1020.5 5.4 S 8.3 0.0 0.0
16:44 13.0 6.1 63 1020.4 5.4 S 8.3 0.0 0.0
16:45 13.0 6.1 63 1020.4 5.4 S 8.3 0.0 0.0
16:46 13.0 6.1 63 1020.3 6.9 S 7.6 0.0 0.0
16:48 13.0 6.1 63 1020.2 6.0 SE 7.6 0.0 0.0
16:49 13.0 6.1 63 1020.4 6.0 SE 7.6 0.0 0.0
16:50 12.9 6.0 63 1020.3 7.6 SW 7.6 0.0 0.0
16:51 12.9 6.0 63 1020.4 6.9 S 7.6 0.0 0.0
16:52 12.9 6.0 63 1020.3 6.9 S 7.6 0.0 0.0
16:53 12.9 6.0 63 1020.3 9.2 S 9.2 0.0 0.0
16:54 12.9 6.0 63 1020.1 9.2 S 9.2 0.0 0.0
16:55 12.8 5.9 63 1020.4 7.6 S 9.2 0.0 0.0
16:56 12.8 5.9 63 1020.4 7.6 S 9.2 0.0 0.0
16:57 12.8 5.9 63 1020.1 6.9 S 9.2 0.0 0.0
16:58 12.8 5.9 63 1020.3 4.5 S 9.2 0.0 0.0
16:59 12.8 5.9 63 1020.2 5.4 S 9.2 0.0 0.0
17:00 12.8 5.9 63 1020.3 5.4 S 9.2 0.0 0.0
17:02 12.8 5.9 63 1020.3 5.4 S 9.2 0.0 0.0
17:03 12.8 5.9 63 1020.4 5.4 S 9.2 0.0 0.0
17:04 12.8 5.9 63 1020.4 5.4 S 7.6 0.0 0.0
17:05 12.8 5.9 63 1020.1 5.4 S 7.6 0.0 0.0
17:06 12.6 5.7 63 1020.4 6.9 S 6.9 0.0 0.0
17:07 12.6 5.7 63 1020.2 7.6 SE 7.6 0.0 0.0
17:08 12.6 5.7 63 1020.4 4.5 S 7.6 0.0 0.0
17:09 12.6 5.7 63 1020.2 4.5 S 7.6 0.0 0.0
17:10 12.6 5.7 63 1020.3 6.0 S 7.6 0.0 0.0
17:11 12.6 6.0 64 1020.2 3.8 S 7.6 0.0 0.0
17:12 12.6 6.0 64 1020.4 4.5 S 7.6 0.0 0.0
17:13 12.6 6.0 64 1020.4 4.5 S 7.6 0.0 0.0
17:14 12.5 5.9 64 1020.3 5.4 W 7.6 0.0 0.0
17:15 12.5 5.9 64 1020.4 5.4 S 7.6 0.0 0.0
17:16 12.5 5.9 64 1020.3 4.5 SW 7.6 0.0 0.0
17:17 12.5 5.9 64 1020.3 4.5 S 7.6 0.0 0.0
17:18 12.4 6.9 69 1020.2 4.5 S 6.0 0.0 0.0
17:19 12.4 6.9 69 1020.4 4.5 SE 6.0 0.0 0.0
17:20 12.4 6.9 69 1020.4 4.5 S 6.0 0.0 0.0
17:21 12.4 6.9 69 1020.4 4.5 S 5.4 0.0 0.0
17:22 12.4 6.9 69 1020.4 3.1 S 5.4 0.0 0.0
17:23 12.4 6.9 69 1020.5 2.2 SE 5.4 0.0 0.0
17:24 12.4 6.9 69 1020.4 3.8 S 5.4 0.0 0.0
17:25 12.4 6.9 69 1020.2 3.1 S 5.4 0.0 0.0
17:26 12.4 6.9 69 1020.4 3.8 S 4.5 0.0 0.0
17:28 12.3 6.8 69 1020.5 3.1 S 4.5 0.0 0.0
17:29 12.3 6.8 69 1020.6 3.1 SE 4.5 0.0 0.0
17:30 12.3 6.8 69 1020.4 3.1 SE 4.5 0.0 0.0
17:31 12.3 6.8 69 1020.5 3.1 S 4.5 0.0 0.0
17:32 12.2 6.7 69 1020.4 6.0 SSW 6.0 0.0 0.0
17:33 12.2 6.7 69 1020.4 6.0 SSW 6.0 0.0 0.0
17:34 12.2 6.7 69 1020.5 3.1 SW 6.0 0.0 0.0
17:35 12.1 6.6 69 1020.4 3.1 S 6.0 0.0 0.0
17:36 12.1 6.6 69 1020.5 3.1 SE 6.0 0.0 0.0
17:37 12.1 6.6 69 1020.4 3.8 S 6.0 0.0 0.0
17:38 12.0 6.5 69 1020.3 4.5 S 6.0 0.0 0.0
17:39 12.0 6.5 69 1020.5 4.5 S 6.0 0.0 0.0
17:40 12.0 6.7 70 1020.3 3.1 S 6.0 0.0 0.0
17:42 11.9 6.6 70 1020.3 3.1 S 6.0 0.0 0.0
17:43 11.9 6.6 70 1020.3 3.1 S 4.5 0.0 0.0
17:44 11.8 6.5 70 1020.4 3.1 S 4.5 0.0 0.0
17:45 11.8 6.5 70 1020.4 2.2 SW 4.5 0.0 0.0
17:46 11.8 6.5 70 1020.4 2.2 SE 4.5 0.0 0.0
17:47 11.8 6.5 70 1020.6 2.2 SE 4.5 0.0 0.0
17:48 11.7 6.4 70 1020.1 1.6 S 4.5 0.0 0.0
17:49 11.7 6.4 70 1020.3 2.2 S 4.5 0.0 0.0
17:50 11.7 6.4 70 1020.3 2.2 S 3.1 0.0 0.0
17:51 11.6 6.3 70 1020.6 2.2 S 3.1 0.0 0.0
17:52 11.6 6.3 70 1020.4 2.2 S 3.1 0.0 0.0
17:53 11.6 6.3 70 1020.4 2.2 S 3.1 0.0 0.0
17:54 11.5 6.2 70 1020.3 3.1 S 3.1 0.0 0.0
17:56 11.4 6.1 70 1020.4 2.2 E 3.1 0.0 0.0
17:57 11.4 6.1 70 1020.5 2.2 NE 3.1 0.0 0.0
17:58 11.3 6.0 70 1020.6 1.6 E 3.1 0.0 0.0
17:59 11.3 6.0 70 1020.4 0.7 NE 3.1 0.0 0.0
18:00 11.3 6.0 70 1020.5 0.7 NE 3.1 0.0 0.0
18:01 11.3 6.0 70 1020.5 0.7 NE 3.1 0.0 0.0
18:02 11.3 6.0 70 1020.4 0.7 NE 3.1 0.0 0.0
18:03 11.3 6.0 70 1020.3 0.7 NE 3.1 0.0 0.0
18:04 11.3 6.0 70 1020.4 0.7 NE 3.1 0.0 0.0
18:05 11.3 6.0 70 1020.3 0.7 NE 2.2 0.0 0.0
18:06 11.0 5.7 70 1020.4 0.7 NE 2.2 0.0 0.0
18:07 11.0 5.7 70 1020.5 0.7 NE 2.2 0.0 0.0
18:08 11.0 5.7 70 1020.5 0.7 NE 1.6 0.0 0.0
18:10 10.9 5.6 70 1020.4 0.7 NE 1.6 0.0 0.0
18:11 10.9 5.6 70 1020.5 0.7 NE 1.6 0.0 0.0
18:12 10.8 5.6 70 1020.4 0.7 N 1.6 0.0 0.0
18:13 10.8 5.6 70 1020.5 0.7 N 1.6 0.0 0.0
18:14 10.8 5.6 70 1020.5 1.6 NW 1.6 0.0 0.0
18:15 10.8 5.6 70 1020.5 1.6 NW 1.6 0.0 0.0
18:16 10.7 5.5 70 1020.3 0.7 N 1.6 0.0 0.0
18:17 10.7 5.5 70 1020.5 1.6 N 1.6 0.0 0.0
18:18 10.6 5.6 71 1020.6 0.7 N 1.6 0.0 0.0
18:19 10.6 5.6 71 1020.5 1.6 N 1.6 0.0 0.0
18:20 10.6 5.6 71 1020.3 1.6 N 1.6 0.0 0.0
18:21 10.6 5.6 71 1020.5 0.7 N 1.6 0.0 0.0
18:22 10.5 5.5 71 1020.6 0.7 NE 1.6 0.0 0.0
18:24 10.4 5.4 71 1020.6 1.6 NE 1.6 0.0 0.0
18:25 10.4 5.4 71 1020.4 1.6 NW 1.6 0.0 0.0
18:26 10.4 5.4 71 1020.6 0.7 NE 1.6 0.0 0.0
18:27 10.4 5.4 71 1020.4 0.7 N 1.6 0.0 0.0
18:28 10.3 5.3 71 1020.4 0.7 N 1.6 0.0 0.0
18:29 10.3 5.3 71 1020.4 0.7 N 1.6 0.0 0.0
18:30 10.3 5.3 71 1020.4 0.7 N 1.6 0.0 0.0
18:31 10.2 5.2 71 1020.4 0.7 N 1.6 0.0 0.0
18:32 10.2 5.2 71 1020.2 0.7 N 1.6 0.0 0.0
18:33 10.2 5.2 71 1020.6 1.6 W 1.6 0.0 0.0
18:34 10.2 5.2 71 1020.4 1.6 N 1.6 0.0 0.0
18:35 10.1 5.1 71 1020.5 0.7 N 1.6 0.0 0.0
18:36 10.1 5.1 71 1020.4 0.7 SE 1.6 0.0 0.0
18:38 10.0 5.0 71 1020.4 0.7 W 1.6 0.0 0.0
18:39 10.0 5.0 71 1020.2 0.7 N 1.6 0.0 0.0
18:40 10.0 5.0 71 1020.3 0.7 SE 1.6 0.0 0.0
18:41 9.9 4.9 71 1020.3 0.7 E 1.6 0.0 0.0
18:42 9.9 4.9 71 1020.2 0.7 N 1.6 0.0 0.0
18:43 9.9 4.9 71 1020.4 1.6 S 1.6 0.0 0.0
18:44 9.9 4.9 71 1020.3 1.6 S 1.6 0.0 0.0
18:45 9.8 4.8 71 1020.4 1.6 S 1.6 0.0 0.0
18:46 9.8 5.0 72 1020.5 0.7 S 1.6 0.0 0.0
18:47 9.8 5.0 72 1020.6 0.7 NE 1.6 0.0 0.0
18:48 9.8 5.0 72 1020.7 0.7 NE 1.6 0.0 0.0
18:49 9.8 5.0 72 1020.4 0.7 NE 1.6 0.0 0.0
18:50 9.7 4.9 72 1020.5 1.6 NE 1.6 0.0 0.0
18:52 9.7 4.9 72 1020.5 0.7 NE 1.6 0.0 0.0
18:53 9.7 4.9 72 1020.5 0.7 NE 1.6 0.0 0.0
18:54 9.7 4.9 72 1020.6 0.7 NW 1.6 0.0 0.0
18:55 9.6 4.8 72 1020.5 0.7 N 1.6 0.0 0.0
18:56 9.6 4.8 72 1020.6 0.7 NE 1.6 0.0 0.0
18:57 9.6 4.8 72 1020.6 0.7 NE 1.6 0.0 0.0
18:58 9.6 4.8 72 1020.4 0.7 NE 1.6 0.0 0.0
18:59 9.6 4.8 72 1020.4 0.7 NE 1.6 0.0 0.0
19:00 9.5 4.7 72 1020.5 0.7 NE 1.6 0.0 0.0
19:01 9.5 4.7 72 1020.4 0.7 NE 0.7 0.0 0.0
19:02 9.5 4.7 72 1020.4 0.7 NE 0.7 0.0 0.0
19:03 9.5 4.7 72 1020.5 0.7 NE 0.7 0.0 0.0
19:04 9.5 4.7 72 1020.5 0.7 NE 0.7 0.0 0.0
19:07 9.5 4.7 72 1020.4 1.6 E 1.6 0.0 0.0
19:08 9.4 4.6 72 1020.4 1.6 NE 1.6 0.0 0.0
19:09 9.4 4.6 72 1020.5 0.7 NE 1.6 0.0 0.0
19:10 9.4 4.6 72 1020.7 0.7 NE 1.6 0.0 0.0
19:11 9.4 4.6 72 1020.5 0.7 NE 1.6 0.0 0.0
19:12 9.4 4.6 72 1020.5 0.7 NE 1.6 0.0 0.0
19:13 9.4 4.6 72 1020.4 0.0 NE 1.6 0.0 0.0
19:14 9.4 4.6 72 1020.4 0.7 NE 1.6 0.0 0.0
19:15 9.4 4.6 72 1020.5 0.7 N 1.6 0.0 0.0
19:16 9.4 4.6 72 1020.6 0.7 N 1.6 0.0 0.0
19:17 9.4 4.6 72 1020.6 0.7 N 1.6 0.0 0.0
19:18 9.4 4.6 72 1020.5 0.7 NE 1.6 0.0 0.0
19:19 9.3 4.5 72 1020.4 0.7 NW 0.7 0.0 0.0
19:20 9.3 4.5 72 1020.4 0.7 N 0.7 0.0 0.0
19:21 9.3 4.5 72 1020.6 0.0 NW 0.7 0.0 0.0
19:22 9.3 4.5 72 1020.3 0.7 N 0.7 0.0 0.0
19:23 9.3 4.5 72 1020.5 0.7 NE 0.7 0.0 0.0
19:24 9.3 4.5 72 1020.5 0.7 NE 0.7 0.0 0.0
19:25 9.3 4.5 72 1020.5 0.7 NE 0.7 0.0 0.0
19:27 9.2 4.4 72 1020.4 0.0 NW 0.7 0.0 0.0
19:28 9.2 4.4 72 1020.3 0.7 N 0.7 0.0 0.0
19:29 9.2 4.4 72 1020.3 0.7 NE 0.7 0.0 0.0
19:30 9.2 4.4 72 1020.5 0.7 N 0.7 0.0 0.0
19:31 9.2 4.4 72 1020.4 1.6 N 1.6 0.0 0.0
19:32 9.2 4.4 72 1020.4 0.7 N 1.6 0.0 0.0
19:33 9.1 4.3 72 1020.2 0.7 SW 1.6 0.0 0.0
19:34 9.1 4.3 72 1020.3 1.6 W 1.6 0.0 0.0
19:35 9.1 4.3 72 1020.3 1.6 N 1.6 0.0 0.0
19:36 9.1 4.3 72 1020.5 0.7 NW 1.6 0.0 0.0
19:37 9.1 4.3 72 1020.4 0.7 N 1.6 0.0 0.0
19:38 9.1 4.3 72 1020.2 0.7 N 1.6 0.0 0.0
19:39 9.1 4.3 72 1020.3 0.7 NW 1.6 0.0 0.0
19:41 9.1 4.3 72 1020.2 0.7 NE 1.6 0.0 0.0
19:42 9.0 4.2 72 1020.4 1.6 SE 1.6 0.0 0.0
19:43 9.0 4.2 72 1020.4 1.6 SE 1.6 0.0 0.0
19:44 9.0 4.2 72 1020.3 0.7 SE 1.6 0.0 0.0
19:45 9.0 4.4 73 1020.4 1.6 N 1.6 0.0 0.0
19:46 9.0 4.4 73 1020.4 1.6 NE 1.6 0.0 0.0
19:47 9.0 4.4 73 1020.3 1.6 SE 1.6 0.0 0.0
19:48 9.0 4.4 73 1020.3 1.6 SE 1.6 0.0 0.0
19:49 9.0 4.4 73 1020.4 1.6 SE 1.6 0.0 0.0
19:50 9.0 4.4 73 1020.5 0.7 N 1.6 0.0 0.0
19:51 9.0 4.4 73 1020.3 0.7 N 1.6 0.0 0.0
19:52 9.0 4.4 73 1020.2 0.7 N 1.6 0.0 0.0
19:53 9.0 4.4 73 1020.2 1.6 ESE 1.6 0.0 0.0
19:54 9.0 4.4 73 1020.4 1.6 N 1.6 0.0 0.0
19:56 8.9 4.3 73 1020.1 1.6 SE 2.2 0.0 0.0
19:57 8.9 4.3 73 1020.2 3.1 S 3.1 0.0 0.0
19:58 8.9 4.3 73 1020.3 3.1 S 3.1 0.0 0.0
19:59 8.9 4.3 73 1020.3 3.1 SW 3.1 0.0 0.0
20:00 8.9 4.3 73 1020.2 3.1 S 3.1 0.0 0.0
20:01 8.9 4.3 73 1020.3 3.1 SW 3.1 0.0 0.0
20:02 8.9 4.3 73 1020.0 3.1 S 3.1 0.0 0.0
20:03 8.9 4.3 73 1020.1 3.1 E 3.1 0.0 0.0
20:04 8.9 4.3 73 1020.1 3.1 S 3.1 0.0 0.0
20:05 8.9 4.3 73 1020.2 3.1 S 3.1 0.0 0.0
20:06 8.9 4.3 73 1020.1 1.6 NE 3.1 0.0 0.0
20:07 8.9 4.3 73 1020.2 0.7 NE 3.1 0.0 0.0
20:08 8.9 4.3 73 1020.0 0.7 NE 3.1 0.0 0.0
20:09 8.9 4.3 73 1020.3 0.7 NE 3.1 0.0 0.0
20:10 8.8 4.2 73 1020.2 0.7 SW 3.1 0.0 0.0
20:11 8.8 4.2 73 1020.1 0.7 N 3.1 0.0 0.0
20:13 8.8 4.2 73 1020.3 0.7 NE 3.1 0.0 0.0
20:14 8.8 4.2 73 1020.2 0.7 NE 3.1 0.0 0.0
20:15 8.8 4.2 73 1020.2 0.7 NW 1.6 0.0 0.0
20:16 8.8 4.2 73 1020.2 0.7 NE 0.7 0.0 0.0
20:17 8.8 4.2 73 1020.2 0.7 N 0.7 0.0 0.0
20:18 8.8 4.2 73 1020.2 0.7 N 0.7 0.0 0.0
20:19 8.8 4.2 73 1020.3 0.7 N 0.7 0.0 0.0
20:20 8.8 4.2 73 1020.1 0.7 N 0.7 0.0 0.0
20:21 8.7 4.1 73 1020.1 0.7 N 0.7 0.0 0.0
20:22 8.7 4.1 73 1020.1 0.7 E 0.7 0.0 0.0
20:23 8.7 4.1 73 1020.2 1.6 NE 1.6 0.0 0.0
20:24 8.7 4.1 73 1020.0 1.6 N 1.6 0.0 0.0
20:25 8.7 4.1 73 1020.1 1.6 N 1.6 0.0 0.0
20:26 8.7 4.1 73 1020.1 0.7 N 1.6 0.0 0.0
20:27 8.7 4.1 73 1020.0 0.7 NE 1.6 0.0 0.0
20:29 8.7 4.1 73 1020.1 1.6 NE 1.6 0.0 0.0
20:30 8.7 4.1 73 1020.0 1.6 N 1.6 0.0 0.0
20:31 8.7 4.1 73 1019.9 1.6 S 1.6 0.0 0.0
20:32 8.7 4.1 73 1019.9 1.6 W 1.6 0.0 0.0
20:33 8.7 4.1 73 1019.8 0.7 SW 1.6 0.0 0.0
20:34 8.7 4.3 74 1020.0 1.6 S 1.6 0.0 0.0
20:35 8.7 4.3 74 1019.7 1.6 NE 1.6 0.0 0.0
20:36 8.7 4.3 74 1019.9 1.6 S 1.6 0.0 0.0
20:37 8.7 4.3 74 1020.1 1.6 S 1.6 0.0 0.0
20:38 8.7 4.3 74 1020.0 3.8 N 3.8 0.0 0.0
20:39 8.7 4.3 74 1020.0 3.1 S 3.8 0.0 0.0
20:40 8.7 4.3 74 1019.9 3.1 S 3.8 0.0 0.0
20:41 8.7 4.3 74 1019.9 1.6 SE 3.8 0.0 0.0
20:42 8.7 4.3 74 1019.9 1.6 SE 3.8 0.0 0.0
20:44 8.7 4.3 74 1020.0 1.6 NE 3.8 0.0 0.0
20:45 8.7 4.3 74 1020.0 1.6 NE 3.8 0.0 0.0
20:46 8.7 4.3 74 1020.0 1.6 SE 3.8 0.0 0.0
20:47 8.7 4.3 74 1020.0 0.7 E 3.8 0.0 0.0
20:48 8.7 4.3 74 1020.0 0.7 E 3.1 0.0 0.0
20:49 8.7 4.3 74 1020.0 0.7 E 3.1 0.0 0.0
20:50 8.7 4.3 74 1019.9 2.2 S 3.1 0.0 0.0
20:51 8.7 4.3 74 1020.1 0.7 NE 2.2 0.0 0.0
20:52 8.7 4.3 74 1019.9 1.6 NE 2.2 0.0 0.0
20:53 8.7 4.3 74 1020.2 1.6 N 2.2 0.0 0.0
20:54 8.7 4.3 74 1020.1 1.6 SE 2.2 0.0 0.0
20:55 8.7 4.3 74 1020.0 1.6 SE 2.2 0.0 0.0
20:56 8.7 4.3 74 1019.9 0.7 W 2.2 0.0 0.0
20:58 8.7 4.3 74 1019.7 1.6 NE 2.2 0.0 0.0
20:59 8.7 4.3 74 1020.0 1.6 N 2.2 0.0 0.0
21:00 8.7 4.3 74 1020.0 1.6 E 1.6 0.0 0.0
21:01 8.7 4.3 74 1020.0 1.6 E 1.6 0.0 0.0
21:02 8.7 4.3 74 1019.9 1.6 E 1.6 0.0 0.0
21:03 8.7 4.3 74 1019.8 1.6 E 1.6 0.0 0.0
21:04 8.7 4.3 74 1019.7 1.6 E 1.6 0.0 0.0
21:05 8.7 4.3 74 1019.8 1.6 E 1.6 0.0 0.0
21:06 8.7 4.3 74 1019.9 1.6 E 1.6 0.0 0.0
21:07 8.7 4.5 75 1019.9 2.2 E 2.2 0.0 0.0
21:08 8.7 4.5 75 1019.6 0.7 NE 2.2 0.0 0.0
21:09 8.7 4.5 75 1019.6 3.1 SE 3.1 0.0 0.0
21:10 8.8 4.6 75 1019.7 1.6 SW 3.1 0.0 0.0
21:12 8.8 4.6 75 1019.7 1.6 SE 3.1 0.0 0.0
21:13 8.8 4.6 75 1019.8 1.6 SE 3.1 0.0 0.0
21:14 8.8 4.6 75 1019.7 2.2 S 3.1 0.0 0.0
21:15 8.8 4.6 75 1019.7 2.2 E 3.1 0.0 0.0
21:16 8.8 4.6 75 1019.4 2.2 NE 3.1 0.0 0.0
21:18 8.8 4.6 75 1019.7 1.6 SW 3.1 0.0 0.0
21:19 8.8 4.6 75 1019.7 2.2 S 3.1 0.0 0.0
21:20 8.8 4.6 75 1019.7 2.2 N 2.2 0.0 0.0
21:21 8.8 4.6 75 1019.6 2.2 S 2.2 0.0 0.0
21:22 8.8 4.6 75 1019.6 2.2 S 2.2 0.0 0.0
21:23 8.8 4.6 75 1019.5 3.1 SE 3.1 0.0 0.0
21:24 8.9 4.7 75 1019.5 2.2 S 3.1 0.0 0.0
21:25 8.9 4.7 75 1019.6 2.2 SE 3.1 0.0 0.0
21:26 8.9 4.7 75 1019.6 1.6 SE 3.1 0.0 0.0
21:27 8.9 4.7 75 1019.5 1.6 ESE 3.1 0.0 0.0
21:28 8.9 4.7 75 1019.7 1.6 NE 3.1 0.0 0.0
21:29 8.9 4.7 75 1019.7 1.6 NW 3.1 0.0 0.0
21:30 8.9 4.7 75 1019.5 1.6 N 3.1 0.0 0.0
21:32 9.0 4.8 75 1019.7 0.7 N 3.1 0.0 0.0
21:33 9.0 4.8 75 1019.6 0.7 E 2.2 0.0 0.0
21:34 9.0 5.0 76 1019.7 1.6 S 2.2 0.0 0.0
21:35 9.0 5.0 76 1019.6 1.6 S 1.6 0.0 0.0
21:36 9.0 5.0 76 1019.6 2.2 S 2.2 0.0 0.0
21:37 9.0 5.0 76 1019.6 2.2 S 2.2 0.0 0.0
21:38 9.0 5.0 76 1019.6 1.6 S 2.2 0.0 0.0
21:39 9.0 5.0 76 1019.7 1.6 S 2.2 0.0 0.0
21:40 9.0 5.0 76 1019.4 1.6 S 2.2 0.0 0.0
21:41 9.0 5.0 76 1019.5 1.6 SW 2.2 0.0 0.0
21:42 9.1 5.1 76 1019.5 1.6 S 2.2 0.0 0.0
21:43 9.1 5.1 76 1019.6 2.2 NE 2.2 0.0 0.0
21:44 9.1 5.1 76 1019.5 2.2 SE 2.2 0.0 0.0
21:45 9.1 5.1 76 1019.5 2.2 N 2.2 0.0 0.0
21:47 9.1 5.1 76 1019.5 3.1 S 3.1 0.0 0.0
21:48 9.1 5.1 76 1019.7 2.2 SE 3.1 0.0 0.0
21:49 9.1 5.1 76 1019.7 2.2 S 3.1 0.0 0.0
21:50 9.1 5.1 76 1019.6 2.2 S 3.1 0.0 0.0
21:51 9.1 5.1 76 1019.7 2.2 S 3.1 0.0 0.0
21:52 9.1 5.1 76 1019.6 1.6 SE 3.1 0.0 0.0
21:53 9.1 5.1 76 1019.7 1.6 S 3.1 0.0 0.0
21:54 9.2 5.2 76 1019.5 2.2 S 3.1 0.0 0.0
21:55 9.2 5.2 76 1019.7 3.1 S 3.1 0.0 0.0
21:56 9.2 5.2 76 1019.5 3.1 N 3.1 0.0 0.0
21:57 9.2 5.2 76 1019.8 2.2 SW 3.1 0.0 0.0
21:58 9.2 5.2 76 1019.6 2.2 S 3.1 0.0 0.0
21:59 9.2 5.2 76 1019.8 1.6 S 3.1 0.0 0.0
22:01 9.2 5.2 76 1019.8 3.1 S 3.1 0.0 0.0
22:02 9.2 5.2 76 1019.7 3.1 S 3.1 0.0 0.0
22:03 9.2 5.2 76 1019.6 2.2 S 3.1 0.0 0.0
22:04 9.2 5.2 76 1019.8 3.1 E 3.1 0.0 0.0
22:05 9.2 5.2 76 1019.8 2.2 S 3.1 0.0 0.0
22:06 9.2 5.2 76 1019.6 2.2 W 3.1 0.0 0.0
22:07 9.2 5.2 76 1019.9 2.2 NW 3.1 0.0 0.0
22:08 9.2 5.2 76 1019.7 3.1 S 3.1 0.0 0.0
22:09 9.2 5.2 76 1019.7 3.1 SW 3.1 0.0 0.0
22:10 9.2 5.2 76 1020.0 3.8 N 3.8 0.0 0.0
22:11 9.2 5.2 76 1019.6 3.8 N 3.8 0.0 0.0
22:12 9.2 5.2 76 1019.5 2.2 E 3.8 0.0 0.0
22:13 9.2 5.2 76 1019.6 2.2 NNW 3.8 0.0 0.0
22:14 9.2 5.2 76 1019.6 3.1 NE 3.8 0.0 0.0
22:16 9.2 5.2 76 1019.5 2.2 E 3.8 0.0 0.0
22:17 9.2 5.2 76 1019.3 3.1 SE 3.8 0.0 0.0
22:18 9.2 5.2 76 1019.5 3.1 E 3.8 0.0 0.0
22:19 9.2 5.2 76 1019.5 3.8 S 3.8 0.0 0.0
22:20 9.2 5.2 76 1019.6 3.8 S 3.8 0.0 0.0
22:21 9.2 5.2 76 1019.5 3.1 NE 3.8 0.0 0.0
22:22 9.2 5.2 76 1019.6 3.1 ENE 3.8 0.0 0.0
22:23 9.2 5.2 76 1019.5 3.1 S 3.8 0.0 0.0
22:24 9.2 5.2 76 1019.6 3.8 E 3.8 0.0 0.0
22:25 9.2 5.2 76 1019.5 3.8 S 3.8 0.0 0.0
22:26 9.3 5.3 76 1019.7 3.1 SW 3.8 0.0 0.0
22:27 9.3 5.3 76 1019.5 3.8 SE 3.8 0.0 0.0
22:28 9.3 5.3 76 1019.5 3.1 S 3.8 0.0 0.0
22:30 9.3 5.3 76 1019.6 3.1 SE 3.8 0.0 0.0
22:31 9.3 5.3 76 1019.7 3.1 S 3.8 0.0 0.0
22:32 9.3 5.3 76 1019.6 3.8 E 3.8 0.0 0.0
22:33 9.3 5.3 76 1019.3 3.8 SE 3.8 0.0 0.0
22:34 9.4 5.4 76 1019.3 4.5 SE 4.5 0.0 0.0
22:35 9.4 5.4 76 1019.4 3.1 E 4.5 0.0 0.0
22:36 9.4 5.4 76 1019.3 3.8 SE 4.5 0.0 0.0
22:37 9.4 5.4 76 1019.4 3.8 SE 4.5 0.0 0.0
22:38 9.4 5.4 76 1019.6 6.0 S 6.0 0.0 0.0
22:39 9.4 5.4 76 1019.3 3.8 S 6.0 0.0 0.0
22:40 9.4 5.4 76 1019.3 4.5 S 6.0 0.0 0.0
22:41 9.4 5.4 76 1019.3 4.5 SE 6.0 0.0 0.0
22:42 9.4 5.4 76 1019.2 4.5 S 6.0 0.0 0.0
22:44 9.4 5.4 76 1019.3 3.8 S 6.0 0.0 0.0
22:45 9.5 5.5 76 1019.3 3.8 S 6.0 0.0 0.0
22:46 9.5 5.5 76 1019.3 4.5 SE 6.0 0.0 0.0
22:47 9.5 5.5 76 1019.3 4.5 S 6.0 0.0 0.0
22:48 9.5 5.5 76 1019.3 2.2 SW 5.4 0.0 0.0
22:49 9.5 5.5 76 1019.3 2.2 SW 5.4 0.0 0.0
22:50 9.5 5.5 76 1019.4 5.4 S 5.4 0.0 0.0
22:51 9.5 5.5 76 1019.2 3.1 S 5.4 0.0 0.0
22:52 9.5 5.5 76 1019.4 3.1 SE 5.4 0.0 0.0
22:53 9.5 5.5 76 1019.4 3.1 S 5.4 0.0 0.0
22:54 9.5 5.5 76 1019.4 4.5 S 5.4 0.0 0.0
22:55 9.5 5.5 76 1019.3 3.8 S 5.4 0.0 0.0
22:56 9.6 5.6 76 1019.4 3.8 S 5.4 0.0 0.0
22:57 9.6 5.6 76 1019.4 3.8 S 5.4 0.0 0.0
22:59 9.6 5.6 76 1019.4 3.8 SSE 5.4 0.0 0.0
23:00 9.6 5.6 76 1019.2 5.4 NE 5.4 0.0 0.0
23:01 9.6 5.6 76 1019.2 5.4 NE 5.4 0.0 0.0
23:02 9.6 5.6 76 1019.3 5.4 NE 5.4 0.0 0.0
23:03 9.6 5.6 76 1019.2 5.4 NE 5.4 0.0 0.0
23:04 9.6 5.6 76 1019.0 5.4 NE 5.4 0.0 0.0
23:05 9.6 5.6 76 1019.1 5.4 NE 5.4 0.0 0.0
23:06 9.6 5.6 76 1019.1 5.4 NE 5.4 0.0 0.0
23:07 9.7 5.7 76 1019.1 3.8 NE 5.4 0.0 0.0
23:08 9.7 5.7 76 1019.0 3.8 SE 5.4 0.0 0.0
23:09 9.7 5.7 76 1019.0 5.4 NE 5.4 0.0 0.0
23:10 9.7 5.7 76 1019.0 6.0 SE 6.0 0.0 0.0
23:11 9.7 5.7 76 1018.9 4.5 N 6.0 0.0 0.0
23:13 9.7 5.7 76 1019.1 3.1 S 6.0 0.0 0.0
23:14 9.7 5.7 76 1019.1 4.5 S 6.0 0.0 0.0
23:15 9.8 5.8 76 1019.1 4.5 S 6.0 0.0 0.0
23:16 9.8 5.8 76 1019.1 4.5 S 6.0 0.0 0.0
23:18 9.8 5.8 76 1018.9 2.2 SW 6.0 0.0 0.0
23:19 9.8 5.8 76 1019.0 3.8 ESE 6.0 0.0 0.0
23:21 9.8 5.8 76 1018.8 1.6 N 4.5 0.0 0.0
23:22 9.8 5.8 76 1018.9 2.2 N 4.5 0.0 0.0
23:23 9.8 5.8 76 1018.8 3.1 S 4.5 0.0 0.0
23:24 9.8 5.6 75 1019.0 4.5 SE 4.5 0.0 0.0
23:25 9.8 5.6 75 1019.0 4.5 SE 4.5 0.0 0.0
23:26 9.8 5.6 75 1018.8 3.8 S 4.5 0.0 0.0
23:27 9.7 5.5 75 1019.0 2.2 S 4.5 0.0 0.0
23:28 9.8 5.6 75 1018.8 3.1 SE 4.5 0.0 0.0
23:29 9.8 5.6 75 1018.8 3.1 E 4.5 0.0 0.0
23:30 9.7 5.5 75 1018.9 2.2 S 4.5 0.0 0.0
23:31 9.7 5.5 75 1018.7 2.2 S 4.5 0.0 0.0
23:32 9.7 5.5 75 1018.8 3.8 SE 4.5 0.0 0.0
23:33 9.7 5.5 75 1018.7 1.6 S 4.5 0.0 0.0
23:35 9.7 5.5 75 1018.8 3.8 S 4.5 0.0 0.0
23:36 9.7 5.5 75 1018.7 2.2 N 3.8 0.0 0.0
23:37 9.7 5.5 75 1018.5 2.2 E 3.8 0.0 0.0
23:38 9.7 5.5 75 1018.5 3.8 S 3.8 0.0 0.0
23:39 9.7 5.5 75 1018.4 3.8 SE 3.8 0.0 0.0
23:40 9.7 5.5 75 1018.4 3.8 SE 3.8 0.0 0.0
23:41 9.7 5.5 75 1018.4 5.4 S 5.4 0.0 0.0
23:42 9.7 5.5 75 1018.4 5.4 S 5.4 0.0 0.0
23:43 9.7 5.5 75 1018.5 5.4 S 5.4 0.0 0.0
23:44 9.7 5.5 75 1018.8 4.5 S 5.4 0.0 0.0
23:45 9.7 5.5 75 1018.6 4.5 S 5.4 0.0 0.0
23:46 9.7 5.7 76 1018.5 6.0 S 6.0 0.0 0.0
23:47 9.7 5.7 76 1018.5 4.5 W 6.0 0.0 0.0
23:49 9.7 5.7 76 1018.6 3.8 S 6.0 0.0 0.0
23:50 9.7 5.7 76 1018.6 3.8 E 6.0 0.0 0.0
23:51 9.7 5.7 76 1018.4 4.5 S 6.0 0.0 0.0
23:52 9.7 5.7 76 1018.4 4.5 NW 6.0 0.0 0.0
23:53 9.7 5.7 76 1018.4 4.5 NW 6.0 0.0 0.0
23:54 9.8 5.8 76 1018.5 4.5 SE 6.0 0.0 0.0
23:55 9.8 5.8 76 1018.4 3.1 S 6.0 0.0 0.0
23:56 9.8 5.8 76 1018.5 3.1 E 6.0 0.0 0.0
23:57 9.8 5.8 76 1018.4 3.8 S 4.5 0.0 0.0
23:58 9.8 5.8 76 1018.5 3.1 S 4.5 0.0 0.0
23:59 9.8 5.8 76 1018.3 3.1 E 4.5 0.0 0.0

 

 

UK - WEATHER STATION TOPSITES - UK World Weather Websites

Copyright © Carnkie Weather 2009 - 2020.